GFSMW_sfc_dewp_000.txt.gz
Dewpoint
33 33 32 33 32 31 31 33 33 33 35 35 35 34 34 37 38 40 46 46 45 43 40 41 44 43 41 41 39 38 38 37 38 37 37 37 37 36 36 40 43 49 53
30 32 32 31 30 30 30 31 31 33 34 34 35 34 34 35 36 37 39 45 44 41 39 39 41 41 41 39 39 40 39 39 39 37 37 34 35 36 37 38 39 41 44
28 31 33 32 32 31 32 32 31 32 35 36 34 35 36 36 36 36 37 40 42 42 41 39 40 39 39 38 38 37 37 36 38 38 37 35 33 36 37 37 39 39 41
29 28 29 33 35 34 34 33 34 34 35 37 35 33 32 32 33 34 35 38 41 41 40 40 40 39 40 39 40 39 39 39 36 39 40 39 38 36 32 37 38 40 40
29 29 30 30 31 34 36 37 37 36 37 38 38 37 34 35 35 36 34 35 38 40 41 40 40 41 41 37 34 34 32 36 35 35 36 36 37 36 34 30 29 33 39
31 32 33 34 36 38 38 40 39 39 39 40 39 39 37 36 36 36 37 39 37 37 39 38 37 36 35 34 33 32 29 30 31 31 34 35 32 30 32 30 28 28 29
31 31 35 37 38 38 39 39 39 40 41 41 41 41 40 39 37 36 37 38 35 35 34 34 35 34 33 34 34 34 34 32 30 29 31 32 33 34 33 32 31 31 31
33 34 37 38 39 39 39 39 38 37 37 39 39 40 40 41 41 38 38 36 36 35 34 34 35 36 37 36 36 37 37 35 32 30 31 31 32 34 31 31 32 30 28
36 37 38 39 39 38 39 39 39 38 38 38 37 35 35 36 33 32 34 34 33 33 35 38 40 41 42 41 37 35 33 34 33 33 33 33 34 35 35 35 33 30 28
34 36 37 39 39 39 40 41 40 39 39 33 34 31 31 32 32 32 31 32 34 38 40 41 41 42 39 37 35 34 32 32 33 32 33 33 33 34 35 35 34 34 31
34 37 38 39 39 39 40 40 39 39 32 29 33 32 29 30 29 30 31 31 33 35 36 37 36 36 35 34 32 31 31 31 31 31 31 30 31 31 32 33 33 32 31
36 38 39 39 39 39 39 39 40 34 30 31 32 31 29 27 28 29 30 31 30 30 30 31 31 31 31 31 30 30 28 28 27 26 28 27 26 27 30 31 30 31 30
39 39 39 39 40 39 39 40 40 32 32 31 29 27 26 25 28 28 28 29 28 28 29 28 29 31 31 29 29 28 27 26 25 26 27 28 28 28 28 28 28 30 29
39 39 39 39 40 39 39 40 33 34 34 32 26 25 26 27 29 28 29 28 28 28 28 29 31 31 30 27 26 25 26 26 25 26 26 27 27 26 26 25 26 26 27
39 39 39 39 40 39 40 35 36 36 35 30 30 32 33 32 31 29 30 32 31 30 30 29 28 27 26 23 28 27 25 25 25 26 25 25 27 28 29 26 25 25 24
39 38 40 40 39 39 39 36 36 37 37 37 39 38 36 36 36 36 36 34 31 28 25 25 25 24 23 32 30 29 26 25 24 24 23 23 25 25 26 27 28 27 24
37 38 40 40 39 38 36 37 37 39 39 39 39 40 40 38 37 36 34 28 25 23 22 22 22 23 25 28 28 28 24 25 25 24 24 23 22 24 24 25 27 28 28
38 39 40 38 37 37 37 37 38 39 38 38 38 37 37 35 31 27 25 22 21 20 20 21 23 23 24 28 27 28 26 25 25 25 25 24 25 25 25 25 25 25 25
40 40 38 37 37 36 36 37 36 37 33 26 26 26 26 25 24 21 20 20 19 19 19 22 24 25 25 27 25 25 23 24 25 26 26 26 25 27 28 27 28 26 27
38 36 35 35 35 36 32 24 23 24 24 26 24 24 25 23 21 20 20 19 18 19 23 25 24 24 23 25 24 24 25 24 24 24 24 25 25 27 27 26 26 26 26
35 35 35 35 35 33 29 20 21 22 23 25 25 24 24 22 21 19 18 18 19 22 17 16 19 21 23 22 25 24 24 25 24 24 24 25 26 27 29 28 27 27 27
34 34 35 34 34 21 19 18 19 23 24 25 24 24 24 23 19 18 18 19 21 19 17 12 15 19 18 23 24 24 24 25 26 25 26 27 28 29 30 30 29 28 28
34 34 34 32 30 19 21 21 23 25 25 25 25 25 24 22 19 18 19 19 19 17 16 19 16 19 22 22 24 24 25 27 27 27 27 27 25 25 27 27 28 28 28
32 33 34 30 29 23 22 24 25 24 24 24 25 25 24 22 20 21 19 19 16 15 21 19 19 21 21 21 22 25 27 27 28 25 24 23 23 22 22 23 24 26 27
33 34 36 35 28 23 23 23 24 25 24 25 25 25 24 21 21 21 20 21 20 19 18 17 23 20 18 21 27 26 27 28 26 25 20 20 19 19 20 21 22 24 26
36 34 34 25 23 24 23 25 26 24 24 24 24 22 21 20 20 20 21 23 23 22 22 23 23 22 23 27 26 26 28 26 26 23 19 18 18 18 19 19 19 21 23

GFSMW_sfc_dewp_003.txt.gz
Dewpoint
32 31 32 32 32 34 33 29 29 31 36 36 36 35 35 36 38 39 41 47 47 46 43 42 45 44 41 41 41 39 37 37 38 36 36 37 37 35 36 38 40 42 43
30 30 31 30 29 30 31 31 32 32 33 34 34 34 34 34 35 37 38 44 47 46 43 41 42 44 42 41 41 39 39 38 39 36 36 32 33 36 37 38 39 40 42
31 31 30 29 29 29 30 30 30 31 33 35 34 34 35 36 35 35 36 37 43 46 44 41 39 41 43 41 39 39 38 36 38 38 35 32 31 35 36 34 38 38 40
28 29 31 32 32 32 33 33 33 33 34 35 35 34 33 32 34 35 35 35 40 40 43 42 39 39 40 39 38 38 37 36 33 36 39 37 36 28 26 33 30 32 35
28 28 30 30 31 33 34 37 38 38 38 38 38 39 38 38 38 38 37 36 36 41 41 42 40 39 41 40 39 37 34 33 33 30 31 31 33 35 33 24 23 29 32
31 32 34 36 38 39 39 39 39 39 39 39 40 40 39 39 39 39 38 38 38 38 40 40 40 37 35 34 31 30 29 31 31 33 34 32 28 27 29 29 26 29 30
30 33 35 37 38 38 38 38 38 38 38 39 39 38 38 39 39 39 39 38 35 35 34 35 33 34 35 36 36 36 36 34 34 31 31 32 32 32 32 32 30 27 27
34 36 37 38 38 39 39 39 39 38 38 39 36 36 36 38 39 39 37 37 34 34 36 38 39 40 40 41 41 41 40 40 38 37 33 30 31 32 32 30 29 28 28
36 37 38 38 37 38 39 39 39 39 39 37 33 34 34 34 35 33 34 34 34 36 39 40 41 41 40 41 42 40 38 36 35 34 32 32 32 33 34 34 34 31 27
34 36 37 38 38 38 39 40 39 39 39 30 31 33 33 32 32 33 33 33 36 39 40 40 40 40 41 40 40 37 35 34 34 33 32 32 33 33 34 35 34 34 31
34 36 37 38 38 39 39 39 39 39 35 31 32 33 34 31 30 31 32 34 36 36 35 34 35 38 38 37 36 34 32 32 31 30 30 29 30 30 30 32 32 31 31
36 38 39 39 39 39 39 38 39 38 32 34 33 33 33 30 28 30 30 32 30 30 30 30 31 32 32 31 30 30 29 28 27 27 27 27 25 27 29 30 30 30 31
38 39 39 39 39 40 39 39 40 34 34 34 32 29 28 26 27 28 30 29 28 27 28 27 28 29 30 29 28 28 27 27 27 27 27 28 28 28 28 28 28 28 28
38 39 39 39 39 40 39 39 36 36 35 34 29 25 24 26 28 28 30 32 32 29 29 29 30 30 28 26 26 26 25 25 25 26 25 25 25 25 25 25 25 25 26
38 39 39 38 39 40 39 38 36 36 37 36 31 32 33 32 32 36 37 35 34 32 31 30 27 26 25 24 27 25 25 24 24 25 25 24 25 26 26 25 25 26 25
39 39 37 38 40 39 38 36 36 37 38 37 38 39 39 39 39 38 38 37 37 35 28 25 24 24 23 32 29 29 26 25 24 23 23 23 24 25 25 25 25 26 24
39 37 37 39 39 37 36 36 36 38 37 37 38 39 38 39 38 38 37 36 29 25 23 23 24 25 25 28 28 28 26 25 24 24 24 23 23 25 23 25 25 27 27
36 35 39 39 36 36 35 36 36 36 37 34 29 29 31 30 29 27 24 23 22 21 21 23 25 25 25 27 27 27 24 24 24 24 24 24 25 25 24 24 25 24 24
34 37 38 36 35 34 33 28 26 27 26 26 26 26 28 25 24 22 21 21 20 20 22 25 25 24 23 25 24 23 21 22 22 24 24 24 24 26 27 25 26 25 25
37 36 34 34 34 34 27 27 25 24 24 27 26 25 25 24 22 21 19 19 20 22 24 23 23 23 21 24 24 23 23 23 23 23 23 24 24 26 25 25 26 25 24
35 35 34 34 34 31 24 20 21 23 23 25 25 24 25 24 22 19 20 20 22 22 18 16 18 20 22 22 24 24 24 23 23 23 23 25 26 27 27 29 28 27 26
33 33 33 34 33 23 21 19 19 23 24 24 24 24 25 22 19 20 20 20 20 19 16 12 15 18 17 23 23 24 24 24 25 24 27 26 25 25 24 25 28 27 29
33 32 32 33 31 23 21 21 22 23 24 24 24 24 24 22 20 20 19 19 19 17 16 20 18 19 21 20 22 23 24 26 26 28 24 23 23 23 23 23 25 24 26
31 31 33 34 34 32 22 22 24 23 24 23 24 25 23 21 21 20 20 19 17 16 20 18 18 20 18 18 20 25 25 26 28 25 24 21 22 20 21 22 23 24 24
31 34 34 33 32 30 23 22 23 24 23 24 24 23 23 22 21 20 21 22 21 18 18 16 20 19 17 19 25 25 25 27 26 23 21 20 18 17 18 19 19 20 22
32 34 32 32 27 23 23 22 24 24 24 24 24 22 20 20 21 19 20 22 22 22 21 21 20 21 22 24 25 25 26 26 24 22 19 16 16 15 17 16 16 17 19

GFSMW_sfc_dewp_006.txt.gz
Dewpoint
31 32 32 34 35 36 33 32 34 35 37 37 37 36 36 36 38 39 41 44 47 48 47 45 45 46 43 41 41 40 39 38 39 37 36 37 38 37 37 38 41 41 43
29 30 30 30 31 33 33 31 30 31 32 34 34 35 34 35 35 37 38 39 42 45 46 45 43 43 44 41 41 40 38 38 39 35 35 31 31 34 37 38 35 40 41
28 30 30 29 29 30 30 30 30 31 33 34 34 34 35 35 35 35 35 36 39 41 45 45 44 42 43 42 41 40 39 37 38 38 33 32 29 33 34 31 35 33 36
30 31 31 30 34 31 33 34 35 36 36 38 37 37 35 35 37 37 37 37 38 39 41 45 44 42 41 42 41 40 39 37 35 37 38 35 34 24 23 30 33 31 31
28 28 29 33 38 36 38 39 39 39 39 38 39 39 38 39 40 40 39 40 40 39 39 40 42 42 41 40 40 38 37 34 33 30 32 32 34 34 28 24 26 28 32
30 33 36 38 38 38 38 39 39 39 39 39 39 38 37 37 37 37 39 40 40 38 38 39 40 38 37 34 34 35 33 32 33 33 33 32 28 26 27 28 27 26 29
32 32 37 37 37 38 39 39 39 38 39 39 35 34 34 35 35 35 37 38 38 34 35 35 36 37 38 39 40 39 38 38 38 37 36 35 36 35 33 30 29 28 28
37 37 37 37 37 37 38 39 39 38 39 38 33 34 35 35 35 35 36 36 34 35 38 39 40 39 39 40 40 40 40 41 40 38 37 37 36 36 34 31 29 27 27
34 35 37 38 38 38 39 39 39 39 40 38 33 35 35 35 35 34 34 34 34 38 39 39 39 39 40 41 40 39 38 37 37 37 37 36 36 36 35 35 33 31 26
35 37 37 38 39 39 39 40 39 39 40 35 34 35 35 35 35 33 33 33 35 38 38 38 37 37 36 38 40 40 40 38 37 36 35 34 34 33 33 34 34 34 32
34 35 37 39 39 39 39 40 39 39 40 33 35 35 35 34 33 32 32 33 36 36 33 33 34 35 37 37 37 36 35 33 32 31 30 29 29 29 30 31 31 31 31
36 36 38 39 39 39 40 40 39 40 35 35 35 35 33 29 29 30 31 32 30 29 29 30 30 31 30 31 31 30 29 28 27 27 27 27 26 28 29 30 29 30 30
37 38 39 39 39 39 40 40 40 37 36 36 35 30 27 26 28 28 31 32 32 31 30 29 29 30 31 30 28 27 27 26 27 27 26 27 26 26 26 26 26 27 27
38 38 39 39 39 39 40 40 39 37 37 37 34 32 31 29 32 35 35 35 34 33 32 33 32 32 28 26 26 26 26 25 24 25 24 24 24 23 23 23 23 24 25
39 39 39 39 38 39 40 39 37 37 38 37 37 35 37 37 36 36 37 36 36 36 37 36 30 27 25 23 26 25 24 24 24 24 23 23 24 25 25 23 24 24 25
38 39 37 37 39 40 38 36 36 37 38 37 37 39 39 39 37 37 37 37 36 36 37 32 24 24 23 30 29 29 27 26 24 23 23 23 25 25 26 26 26 25 24
36 33 32 34 37 37 36 35 36 37 37 36 31 31 33 35 35 36 36 34 30 25 23 23 24 25 25 28 28 27 26 25 25 23 23 23 22 24 24 25 25 25 26
36 35 33 35 36 35 35 34 32 31 29 29 30 31 30 28 26 24 23 23 22 21 21 23 25 24 22 25 25 25 24 23 23 23 23 23 24 24 24 24 25 25 25
37 35 36 35 34 34 29 25 25 25 27 31 31 30 25 24 24 22 21 21 20 21 23 25 23 21 21 24 24 24 22 22 22 23 24 24 23 25 26 26 26 25 25
35 36 35 34 33 34 30 27 28 26 24 27 25 24 25 24 22 20 20 20 21 23 22 20 21 21 21 23 24 23 22 22 24 23 24 24 24 26 27 26 26 25 25
35 35 34 32 34 34 27 24 22 22 24 24 24 24 24 23 20 20 20 20 21 21 17 15 18 20 21 21 24 23 23 24 24 24 23 25 27 25 24 24 25 25 25
34 33 32 32 34 33 23 23 25 22 23 24 23 23 24 22 20 20 20 19 19 18 16 12 15 18 16 22 22 22 23 25 25 24 25 26 24 23 23 23 24 24 25
33 32 31 32 33 31 25 32 32 25 23 23 22 23 24 22 20 20 19 19 19 16 16 20 18 18 21 19 21 22 24 26 25 27 28 26 22 21 21 22 24 24 23
31 30 31 33 32 33 33 26 23 23 23 23 23 23 23 22 20 20 20 20 17 16 19 18 17 19 18 18 19 24 24 25 27 26 25 23 22 19 19 21 21 21 22
30 31 32 32 32 31 29 25 22 23 23 23 24 24 23 22 22 21 19 22 21 18 19 16 16 18 16 19 24 24 24 25 25 25 22 19 17 16 17 17 17 19 20
31 31 32 31 31 28 24 24 23 24 23 24 24 21 20 19 21 19 19 21 21 21 20 20 19 19 20 23 23 24 25 25 23 21 18 17 15 14 16 16 15 16 16

GFSMW_sfc_dewp_009.txt.gz
Dewpoint
32 33 36 38 39 43 45 45 45 46 45 42 41 40 41 40 41 40 43 45 45 48 50 49 50 51 49 48 48 47 46 43 43 41 40 40 42 42 39 39 39 37 41
31 33 35 38 39 41 41 37 36 37 37 37 39 40 40 40 40 42 44 44 44 44 44 48 47 48 47 49 49 48 44 43 44 39 38 35 36 38 39 37 38 42 37
31 31 33 35 38 37 38 36 37 39 41 42 40 41 42 41 40 38 39 40 44 44 44 45 46 47 47 46 49 49 46 43 43 44 38 35 32 34 37 39 34 39 34
31 32 34 36 39 40 43 42 42 41 41 43 41 41 38 36 38 40 39 41 44 44 43 43 44 46 46 46 47 46 47 45 42 42 40 40 37 33 31 33 34 32 30
33 35 39 39 40 42 43 43 42 41 42 41 40 39 40 39 39 39 39 40 41 42 42 42 43 44 44 45 46 46 45 43 42 40 39 36 34 35 27 26 27 29 30
33 36 40 40 40 42 43 44 42 41 42 42 40 41 41 40 39 40 39 38 39 39 40 40 42 41 41 41 40 40 40 39 39 37 36 33 30 28 29 28 29 32 31
38 38 38 38 40 40 42 42 41 40 42 43 39 39 41 41 40 39 38 38 38 38 39 40 41 41 42 42 42 42 42 41 40 39 39 38 38 37 36 35 34 32 30
38 39 38 39 39 40 41 42 41 40 41 43 40 39 40 39 38 38 38 38 37 37 41 41 41 41 41 41 42 42 40 39 39 37 37 36 37 37 38 37 35 31 29
37 38 39 40 40 41 42 43 42 40 41 43 40 40 40 39 38 39 37 36 37 39 41 42 41 41 41 41 40 41 39 38 37 37 37 37 37 38 38 36 34 31 27
37 38 38 40 41 42 43 44 43 40 41 42 38 38 38 38 37 34 35 36 38 41 41 38 36 35 36 35 37 38 38 38 38 36 37 36 35 35 34 32 31 28 24
38 38 39 40 41 42 41 42 42 41 41 37 38 39 38 34 31 33 35 36 38 36 33 32 33 34 34 34 35 35 34 33 32 32 31 29 29 28 28 28 26 25 24
39 39 40 40 41 40 40 41 42 41 38 38 38 37 33 30 31 33 33 35 33 32 32 32 35 35 34 33 31 30 29 27 26 26 27 25 22 27 28 27 28 27 27
39 40 39 40 39 38 40 41 41 38 37 38 38 34 33 31 37 37 38 38 37 36 37 37 38 37 32 29 28 27 27 27 27 27 27 26 26 25 24 24 23 23 21
40 40 40 36 36 38 40 39 38 38 37 38 37 36 36 36 37 38 38 38 37 36 36 36 36 37 33 27 25 25 26 27 26 26 25 24 23 22 22 20 21 20 21
40 39 35 34 35 37 38 37 37 37 39 38 38 38 39 38 38 35 34 35 35 34 35 36 34 27 25 22 28 26 26 26 26 25 23 23 24 25 24 22 22 22 22
37 35 34 33 33 37 36 36 36 37 39 38 32 31 31 31 32 33 34 34 31 27 25 24 24 26 23 30 30 29 26 25 23 22 22 21 23 23 25 26 26 25 23
34 32 29 32 36 36 35 34 35 36 35 31 29 30 32 28 27 25 24 24 24 24 23 24 25 25 24 24 25 25 22 22 22 21 20 19 18 23 22 24 24 25 25
33 29 30 35 37 35 33 33 32 31 30 30 31 32 28 25 25 24 23 22 22 22 22 24 23 21 19 23 24 24 23 24 23 21 21 21 22 23 23 22 23 23 24
34 31 35 37 35 32 35 28 27 27 28 29 29 25 25 24 24 22 21 22 22 22 22 20 20 20 20 22 23 24 25 24 23 22 22 22 22 24 26 25 26 26 23
30 31 36 35 32 33 35 33 30 30 28 26 24 24 24 23 22 22 21 21 21 20 20 19 20 21 23 22 23 23 23 24 22 23 23 24 24 26 28 28 27 25 21
30 34 36 32 31 34 35 31 26 25 27 25 24 22 22 23 23 21 21 20 19 23 25 25 25 24 22 23 22 22 24 24 24 23 23 26 28 28 25 24 25 24 23
31 33 34 31 32 34 32 26 27 31 33 25 23 22 23 23 20 20 20 19 21 23 24 24 24 22 24 21 21 21 23 24 26 24 26 29 26 24 22 22 23 24 25
31 33 32 31 32 34 32 29 32 33 28 24 24 23 23 22 21 20 20 19 20 22 22 20 20 19 20 21 20 22 24 22 25 28 26 24 24 22 20 20 22 23 24
31 32 31 31 32 34 32 32 31 27 24 23 24 24 24 23 23 22 22 20 23 22 20 20 19 18 17 19 21 23 23 22 26 26 25 24 22 20 20 20 21 22 23
31 32 32 32 33 33 32 27 24 24 22 23 23 24 25 24 22 23 21 22 24 22 21 19 19 19 19 20 23 23 23 25 24 25 23 20 19 17 18 19 19 20 21
31 30 29 30 27 26 24 25 25 24 24 23 24 26 25 24 22 19 20 21 21 22 19 19 20 20 19 22 22 22 23 23 22 20 18 18 18 18 17 17 18 19 19

GFSMW_sfc_dewp_012.txt.gz
Dewpoint
34 35 39 41 41 47 48 47 48 45 45 42 40 40 41 40 41 42 45 47 46 46 48 46 47 48 48 49 51 49 49 47 46 44 41 40 42 44 40 39 38 37 39
32 35 39 42 44 44 42 40 39 40 40 39 41 43 44 43 43 43 44 43 44 43 42 45 45 45 45 47 49 50 49 48 47 44 41 37 37 39 41 40 39 41 37
32 33 36 40 42 43 43 40 42 43 44 43 41 41 41 41 39 39 38 39 41 40 41 42 43 45 44 43 45 47 47 45 47 48 44 38 36 36 38 42 39 41 39
32 34 37 39 43 45 45 43 43 41 42 44 41 43 39 38 40 40 39 39 41 40 39 40 43 44 43 44 44 42 46 46 44 45 45 47 44 38 36 38 40 39 38
36 38 39 40 42 44 45 45 43 42 42 41 43 41 42 41 40 40 41 39 37 37 37 39 43 43 43 44 46 47 46 45 45 43 43 44 43 43 39 36 36 36 35
35 39 40 40 41 44 45 45 42 41 43 43 42 43 43 42 40 38 37 35 35 35 37 38 42 44 43 44 43 44 44 43 43 42 41 39 37 37 36 37 37 36 35
39 38 38 38 40 42 44 43 42 40 41 42 41 40 41 41 40 38 36 36 34 35 38 41 42 42 44 43 42 42 41 40 39 38 38 38 37 37 38 38 37 36 35
38 38 38 39 40 42 43 44 41 39 38 40 39 40 42 41 38 38 36 36 36 37 40 42 41 41 41 40 41 43 42 39 39 38 38 38 38 38 37 37 37 34 36
36 37 37 39 41 42 43 44 43 41 41 42 43 42 42 40 38 37 37 36 38 37 41 41 41 39 38 38 38 39 39 39 38 39 39 37 37 38 37 36 35 29 27
37 38 38 39 40 42 44 44 43 41 42 42 41 40 40 38 36 36 36 38 39 40 40 39 36 36 38 39 39 38 36 36 37 34 33 32 31 33 34 32 31 30 27
38 38 39 39 41 42 41 41 42 41 39 39 39 39 38 35 35 36 36 37 37 34 33 33 35 37 39 39 38 36 33 31 30 29 27 26 26 25 24 25 25 24 23
37 38 39 40 41 39 38 37 38 38 37 37 37 36 36 35 35 36 36 37 36 36 35 37 39 40 39 37 34 33 30 27 26 26 25 23 18 25 25 24 25 24 25
36 38 39 39 38 36 36 36 37 37 37 35 34 34 36 36 36 36 36 37 36 36 38 38 38 38 37 35 32 31 29 27 26 25 24 24 25 25 24 24 24 23 19
37 39 39 38 35 33 33 36 37 37 34 35 34 34 37 37 37 35 34 34 34 33 33 33 32 31 27 25 25 24 26 26 24 26 27 26 25 24 23 22 21 19 20
39 38 37 33 30 30 36 36 34 34 35 35 34 34 34 32 31 31 30 30 30 26 25 25 25 25 24 22 28 26 25 25 24 25 23 25 25 26 25 22 22 21 21
36 35 33 27 28 32 36 32 30 32 36 34 33 31 31 30 29 29 28 26 23 23 24 24 24 25 20 26 25 25 23 22 21 21 21 21 24 24 26 25 25 25 24
35 33 28 26 31 35 32 29 30 32 33 32 30 29 30 29 27 24 20 21 23 24 24 24 24 24 24 24 24 24 21 21 21 22 20 18 15 23 21 25 27 25 25
30 27 27 28 33 34 29 31 29 29 30 30 29 29 27 26 23 20 20 23 23 23 23 24 23 23 20 23 23 23 23 23 23 21 20 20 20 22 23 22 22 23 24
31 29 28 30 34 33 30 31 31 29 29 28 28 27 26 24 19 19 22 23 23 23 22 22 22 22 22 24 23 23 24 23 23 21 21 22 23 25 25 26 27 24 24
29 27 27 30 33 33 31 32 30 28 26 27 28 26 25 22 19 22 23 24 22 21 22 24 24 24 25 23 22 22 23 25 24 24 23 25 25 27 27 29 28 25 22
27 27 26 28 31 31 31 31 29 26 23 26 27 26 24 21 21 23 24 23 22 24 28 29 27 26 24 23 21 21 23 25 23 23 24 25 29 28 25 25 25 25 25
24 25 26 26 28 29 30 30 27 24 26 30 29 26 23 21 20 23 23 23 23 25 27 29 28 24 28 20 20 21 22 25 26 25 25 30 25 25 23 22 23 23 24
25 25 25 27 27 27 28 30 28 29 30 31 27 25 24 23 23 23 24 22 22 25 25 21 22 20 21 21 21 23 23 23 25 27 27 25 24 24 23 23 22 23 27
24 26 26 24 25 28 30 31 33 35 32 28 25 25 24 24 24 23 22 20 23 24 21 20 19 19 19 20 21 23 23 23 26 25 28 25 24 25 25 23 23 25 25
25 26 24 25 24 26 28 29 26 25 23 23 23 24 26 25 24 22 20 22 23 23 21 19 19 21 20 20 22 23 23 24 23 24 25 23 22 23 21 21 21 23 23
27 25 25 25 25 25 28 25 26 26 26 24 24 27 27 27 25 21 20 23 22 20 19 18 20 20 18 20 21 21 22 22 22 22 21 21 21 21 20 20 21 22 22

GFSMW_sfc_dewp_015.txt.gz
Dewpoint
39 39 41 42 45 49 50 51 51 48 45 42 41 40 41 41 42 43 45 47 45 45 46 44 45 47 45 48 51 50 51 49 51 49 48 48 48 48 44 44 42 41 41
34 38 42 44 45 45 44 43 42 42 41 40 42 45 45 43 43 44 44 43 44 43 42 44 42 43 42 48 49 50 48 48 50 48 47 45 44 45 45 44 45 47 42
32 35 39 42 45 45 43 42 42 43 44 44 41 41 42 42 40 40 41 41 43 42 42 41 42 45 45 44 48 47 47 44 46 49 46 43 40 42 44 47 45 46 44
33 35 38 42 45 46 45 43 42 42 42 45 42 45 41 40 42 42 41 41 41 39 37 38 42 45 45 46 46 42 48 47 44 45 41 47 47 44 43 44 45 44 43
37 38 39 41 42 45 46 45 42 42 43 44 44 43 43 42 42 41 41 41 39 39 36 38 43 44 43 45 46 45 45 43 43 42 43 44 44 45 43 43 43 44 42
37 38 39 39 41 44 46 46 43 41 42 44 44 44 43 42 40 40 39 37 38 37 38 37 42 44 43 43 43 45 44 42 42 41 40 39 39 38 38 37 40 40 46
39 37 38 38 40 42 43 44 42 42 41 42 42 43 41 42 41 39 38 37 35 36 39 40 42 40 42 44 44 43 42 40 39 38 39 39 38 38 37 37 37 37 39
38 38 38 40 40 41 43 44 43 42 42 43 43 43 42 40 39 39 37 36 36 38 39 39 42 42 43 42 41 42 41 39 40 38 38 38 38 37 38 37 37 35 37
35 36 38 39 40 41 42 44 43 40 40 42 43 43 41 40 39 38 37 37 38 36 40 42 42 41 40 40 41 40 40 40 39 39 39 37 37 38 37 35 31 33 30
35 37 38 40 40 41 43 43 42 40 40 40 40 39 39 39 37 37 36 36 37 37 36 38 39 39 39 39 39 38 38 38 39 39 38 38 38 38 38 35 33 33 31
37 37 37 39 39 41 40 39 38 38 37 37 37 38 37 36 35 35 36 37 37 37 36 36 37 39 38 38 39 39 38 37 35 33 31 30 29 27 27 27 28 27 26
36 36 37 39 39 39 38 37 36 34 35 35 34 33 33 34 34 35 36 36 37 36 37 39 39 37 37 37 38 37 34 33 33 33 31 29 23 25 25 24 24 24 24
37 38 39 38 38 37 35 32 34 35 34 32 30 31 32 33 35 36 35 33 32 32 32 33 35 34 33 28 26 25 27 26 27 27 26 24 24 24 24 24 24 22 19
37 38 37 37 36 33 29 32 33 35 32 29 30 31 32 32 33 32 31 30 28 26 24 23 24 25 23 22 23 24 24 24 23 25 24 24 24 24 24 23 23 21 21
37 37 37 34 30 27 29 31 33 31 30 30 30 31 31 31 31 31 28 27 25 22 21 22 23 24 22 20 26 24 23 23 22 23 21 24 26 28 26 21 22 22 21
37 37 30 27 25 26 28 31 30 30 30 29 29 29 30 31 31 29 27 23 22 21 23 23 23 23 18 27 25 24 22 20 20 21 21 21 25 25 29 29 29 25 21
37 35 28 27 27 27 29 30 28 29 28 28 27 28 31 31 28 25 20 20 22 23 23 23 22 22 23 24 24 25 22 21 21 22 21 19 16 24 20 24 28 27 28
35 32 29 27 25 26 27 30 28 28 27 26 27 30 30 29 25 23 20 22 22 23 23 23 23 24 22 26 25 24 22 22 22 21 21 21 20 21 24 23 24 24 24
33 29 26 24 24 24 26 26 27 26 25 25 23 26 29 28 24 22 21 22 22 23 22 22 24 24 25 27 26 23 23 22 21 20 22 22 22 25 26 25 26 24 24
26 24 24 24 23 23 24 24 23 23 24 26 22 25 26 25 24 22 22 23 22 21 23 25 25 26 26 27 24 24 24 24 23 23 21 25 26 27 29 29 29 27 23
21 23 23 22 22 23 24 22 21 22 23 25 26 29 32 29 24 22 23 22 22 25 30 31 29 26 27 25 24 22 24 23 25 23 24 26 29 27 26 25 26 25 26
21 20 21 21 23 22 21 20 20 24 30 32 32 34 33 27 22 23 23 22 22 25 28 32 30 26 30 24 23 22 22 25 25 24 26 29 26 24 25 24 24 24 23
17 17 18 21 21 20 20 19 23 27 31 34 34 34 28 26 22 22 22 21 22 24 26 22 24 22 24 23 21 21 22 22 25 27 26 27 27 26 25 27 24 24 27
15 16 19 19 20 21 20 22 27 28 27 28 28 27 25 24 24 21 19 19 24 24 22 21 19 20 20 22 20 22 23 22 23 23 24 27 26 26 28 28 27 28 28
17 20 21 21 21 22 24 26 27 27 26 26 24 25 25 24 24 22 21 22 24 24 21 19 19 21 20 19 20 22 22 23 22 23 26 24 22 22 24 24 25 26 24
21 20 20 22 23 25 26 27 28 28 28 27 25 27 27 27 25 21 21 24 23 21 19 17 20 20 17 19 19 20 20 22 22 23 21 21 21 21 22 22 22 23 23

GFSMW_sfc_dewp_018.txt.gz
Dewpoint
40 42 45 48 51 53 52 53 52 52 50 48 48 49 50 49 50 49 51 50 50 49 49 48 48 48 47 48 48 48 46 47 49 48 47 47 48 48 47 45 45 44 44
39 43 45 47 49 48 48 47 46 48 47 47 48 49 49 49 48 50 49 49 49 48 45 48 47 46 46 46 46 47 46 46 47 46 45 43 43 45 45 46 44 43 43
37 39 43 47 50 49 49 45 46 47 48 49 46 47 48 48 46 47 46 47 48 46 45 45 45 46 46 45 45 44 44 44 45 46 45 42 39 41 43 43 46 50 48
35 38 43 46 48 49 50 47 46 46 46 49 48 49 46 44 46 47 46 45 46 45 41 42 44 44 45 45 45 44 46 45 43 44 43 43 43 42 40 43 45 46 49
39 39 41 43 45 50 50 50 48 45 47 48 49 48 47 47 46 45 45 44 44 43 41 41 43 43 43 44 46 46 44 43 41 40 40 39 39 40 39 37 39 41 46
39 39 41 43 45 49 50 50 47 45 46 46 46 47 47 46 44 44 42 41 39 39 41 41 42 43 45 44 44 43 42 41 40 39 39 37 37 36 36 36 36 37 41
41 40 39 40 43 46 47 47 46 44 45 48 46 48 46 46 43 42 40 39 38 39 39 42 43 43 44 42 42 41 40 39 39 38 37 37 36 38 37 36 36 35 36
40 40 40 42 43 45 46 46 45 43 42 46 46 47 45 43 42 41 39 39 39 39 41 41 43 42 42 41 41 42 41 40 41 40 39 38 37 38 37 36 35 33 35
38 39 40 43 43 44 46 46 44 42 43 45 45 44 44 43 41 40 40 40 40 37 38 39 41 41 41 40 40 39 39 39 40 40 39 38 37 38 37 36 36 34 29
36 39 39 42 43 43 45 46 44 41 41 40 41 39 40 40 40 39 39 39 38 38 37 38 39 40 40 39 39 38 38 39 40 39 39 38 39 39 38 38 37 35 34
37 38 39 41 42 44 43 42 39 37 37 38 39 39 39 38 39 39 38 38 38 36 37 37 39 38 38 38 38 39 37 37 35 37 36 35 34 32 31 31 34 35 33
38 39 40 41 41 40 41 38 37 37 37 37 36 35 36 36 38 37 37 37 36 36 35 34 33 34 36 36 37 35 35 34 33 33 33 33 29 29 29 28 27 28 27
37 38 39 39 38 38 37 34 35 35 35 32 31 32 34 35 35 35 36 36 34 33 31 28 27 27 28 26 27 27 28 26 25 25 25 26 26 26 27 27 26 26 23
37 38 37 37 36 33 32 31 33 37 34 31 30 31 35 34 34 34 34 34 32 29 27 27 27 28 25 24 26 25 26 25 23 25 24 24 24 25 26 25 26 23 23
37 37 37 35 31 31 30 31 33 35 34 32 30 33 34 33 34 35 34 33 31 27 27 26 27 27 25 22 26 25 24 24 23 23 22 23 26 30 28 21 23 22 22
37 37 35 31 29 29 29 29 31 34 33 32 31 31 33 33 34 34 34 32 28 27 27 27 26 27 20 27 26 26 24 23 22 21 21 23 26 26 29 30 30 26 21
36 35 32 32 29 26 27 26 28 31 34 33 31 32 34 32 34 32 29 27 27 27 27 27 26 26 27 28 27 26 23 22 21 21 21 21 20 25 23 26 27 30 30
35 34 32 27 26 25 25 26 24 25 26 28 28 31 33 32 31 30 29 28 27 27 26 26 26 26 24 30 28 27 23 22 22 21 20 21 22 23 24 24 24 25 25
34 29 25 24 25 24 24 25 24 23 23 24 30 32 34 29 31 30 29 27 26 26 26 26 27 26 26 29 29 30 24 24 22 21 22 22 21 24 27 26 26 26 25
24 21 23 22 22 23 24 22 21 21 21 30 33 33 34 36 35 35 30 27 26 25 29 28 28 29 27 29 28 27 25 22 22 23 23 24 25 29 27 27 27 25 24
21 23 21 20 21 22 21 21 20 20 24 30 32 32 34 35 35 33 27 26 26 28 30 29 29 27 27 26 26 26 25 23 22 22 22 23 27 29 28 25 25 24 25
18 16 17 18 21 20 21 20 19 25 27 28 30 32 37 36 30 28 27 26 25 27 27 25 25 26 26 25 23 26 21 21 23 22 24 26 24 27 26 25 26 27 25
14 16 16 20 21 21 20 21 25 26 28 28 29 30 31 29 28 27 25 23 25 26 25 24 23 21 23 22 22 20 20 21 22 24 24 25 28 26 26 27 28 27 26
16 17 19 19 21 22 23 27 27 28 28 27 27 26 26 26 26 24 23 23 26 25 24 22 20 19 20 19 19 20 21 21 22 22 22 25 25 25 25 27 27 27 28
20 21 21 21 22 24 27 27 26 29 27 27 27 28 29 28 26 24 24 26 26 24 23 22 21 18 16 17 18 19 20 21 22 21 24 22 21 21 22 23 23 25 25
21 20 22 24 24 27 27 28 27 28 28 27 27 27 28 28 26 25 24 26 25 22 21 19 19 19 18 18 18 18 19 21 21 21 20 19 19 19 21 21 21 22 23

GFSMW_sfc_dewp_021.txt.gz
Dewpoint
43 43 45 47 49 45 46 47 48 46 46 45 45 45 45 45 45 46 45 48 46 46 45 46 45 45 44 44 44 45 45 43 46 43 43 46 47 47 48 49 47 46 44
42 44 46 47 46 44 44 44 44 44 45 45 45 46 45 46 46 46 46 47 45 44 41 43 43 43 44 44 44 43 42 43 44 43 43 41 41 42 43 45 46 46 48
42 43 44 45 44 44 43 43 44 44 45 45 45 45 45 45 44 44 44 43 43 41 41 41 42 43 43 43 43 43 43 44 44 44 42 40 40 38 42 42 44 46 48
41 43 44 44 45 45 45 43 43 43 46 45 44 44 44 43 44 44 43 41 41 40 39 40 41 42 42 42 43 45 43 42 40 41 40 40 39 35 34 40 39 39 44
39 41 43 44 45 45 45 44 44 44 44 45 45 44 43 44 44 43 41 39 39 40 39 39 41 42 44 44 43 43 42 41 41 39 39 37 37 37 35 33 35 36 38
39 40 42 44 44 45 45 44 44 43 45 44 45 45 43 42 41 40 39 39 39 39 39 41 42 43 42 42 42 41 39 39 39 38 38 38 35 34 34 33 33 34 36
39 39 39 42 44 42 43 43 43 42 44 45 45 43 42 41 39 38 37 37 38 37 38 39 42 41 41 41 40 40 40 40 39 37 37 37 36 36 35 35 34 32 33
37 37 38 38 41 43 43 43 42 41 43 43 42 42 41 41 39 37 37 37 38 38 37 38 40 41 41 40 39 39 39 39 38 37 38 38 38 38 37 35 35 30 30
36 37 40 41 40 41 42 42 41 40 41 41 40 39 39 39 37 36 37 38 37 36 36 37 38 40 40 39 38 38 37 37 37 38 40 40 40 39 39 38 36 34 28
37 39 40 41 42 41 42 41 39 38 37 36 38 37 36 36 36 38 36 36 36 36 35 36 38 39 39 38 37 37 37 37 37 37 37 36 39 38 39 38 37 37 34
38 40 40 40 40 40 39 39 35 35 35 35 35 33 33 34 37 37 36 35 35 35 35 36 35 36 36 36 36 36 36 36 36 34 33 33 35 34 34 34 33 32 34
37 39 39 39 38 38 36 35 34 34 34 33 32 31 32 33 35 35 35 34 34 33 33 32 29 29 28 30 31 31 28 28 26 26 26 26 24 27 28 29 28 28 27
38 38 37 37 36 34 32 32 32 35 33 31 30 29 31 33 33 32 34 33 32 31 28 27 27 28 29 27 27 28 27 26 26 25 24 23 23 23 24 25 27 27 25
37 37 37 37 34 33 31 30 31 34 33 31 30 30 31 33 32 32 32 32 31 28 25 26 27 28 27 26 26 25 25 25 24 25 25 23 23 23 24 25 24 23 23
37 37 36 36 33 30 30 29 30 32 34 32 32 32 34 34 32 34 36 34 30 28 25 25 27 27 25 23 25 25 24 24 23 24 22 23 24 27 28 25 26 23 22
36 36 35 32 31 28 26 27 28 31 34 33 33 34 36 35 36 36 35 35 29 24 24 25 26 26 23 28 27 25 23 23 22 21 21 22 23 24 25 27 27 28 27
36 35 34 33 29 26 26 26 26 27 27 26 31 33 35 36 37 37 37 33 25 24 25 25 26 26 26 29 27 27 24 23 21 21 21 19 17 23 23 25 26 27 28
35 36 35 33 25 25 25 25 24 24 25 27 32 34 35 35 36 37 35 30 26 24 25 26 26 26 25 30 30 30 26 24 23 22 21 21 22 23 23 23 24 25 25
35 31 24 23 23 23 23 22 22 22 22 32 33 35 37 36 36 36 34 34 28 27 28 27 27 27 26 29 30 28 26 26 24 23 22 21 21 24 28 26 25 25 26
23 22 22 20 21 21 21 22 21 22 28 30 30 32 34 36 36 34 34 32 26 28 28 28 27 28 25 27 25 27 23 20 22 22 22 23 22 28 28 27 23 22 22
21 20 18 19 20 20 21 21 22 26 28 29 30 32 36 36 36 34 32 27 25 27 26 25 25 25 26 23 23 23 23 21 23 21 20 22 24 25 27 26 26 24 25
16 17 19 20 21 20 22 22 25 27 28 29 29 29 31 33 33 30 28 25 25 24 23 15 18 22 22 22 22 21 19 20 21 21 22 23 27 27 25 26 28 29 27
16 18 19 21 21 23 26 26 27 28 29 28 28 28 27 27 27 24 23 24 24 21 21 22 16 19 22 19 20 21 21 21 21 22 24 26 25 24 25 27 27 27 27
18 20 21 21 24 25 28 28 27 29 28 28 28 28 28 28 27 24 24 24 21 19 22 19 18 16 18 17 19 19 18 21 22 21 22 24 23 23 24 23 24 25 25
21 21 22 24 25 28 28 28 27 29 28 27 27 27 26 26 26 24 22 25 22 21 19 18 17 6 5 16 21 19 19 20 23 21 21 20 19 19 21 21 21 21 23
24 24 26 27 29 29 29 28 29 28 27 26 25 25 25 24 25 25 25 27 25 25 24 21 15 12 17 20 20 19 19 21 21 18 18 17 18 18 17 18 19 20 22

GFSMW_sfc_dewp_024.txt.gz
Dewpoint
43 45 47 47 45 45 46 49 49 47 47 48 47 45 45 45 46 45 45 43 42 42 41 42 42 43 43 43 43 44 42 40 42 43 42 43 44 44 44 44 46 45 47
43 44 46 47 47 45 46 45 46 44 44 45 45 45 45 45 45 45 42 42 41 41 38 41 41 41 41 41 41 41 41 42 44 42 42 39 40 41 37 41 40 44 45
42 43 43 46 48 45 45 43 43 43 44 45 44 44 44 44 44 43 41 40 41 40 40 40 41 42 42 42 42 43 42 42 42 41 40 37 35 35 36 34 39 40 41
43 43 43 43 43 43 43 43 43 44 44 44 44 43 42 42 43 42 40 39 40 40 39 42 43 43 43 42 43 43 43 42 40 41 38 39 39 34 31 35 34 36 36
43 43 43 43 44 43 43 43 44 44 45 45 45 44 43 43 42 40 38 38 39 39 40 41 42 42 41 41 40 40 39 40 38 38 37 37 37 36 34 30 32 33 36
42 43 44 45 44 44 44 43 42 44 45 44 43 42 41 40 38 37 37 37 38 39 39 39 42 41 40 40 39 38 38 38 38 37 36 36 35 33 33 32 31 30 33
40 42 43 43 44 43 43 43 42 43 44 44 42 41 40 38 36 36 36 35 37 37 37 38 39 40 40 40 40 39 38 37 36 36 36 36 37 37 35 34 33 32 32
39 40 40 42 42 42 42 42 41 41 42 42 40 40 40 39 37 36 36 38 37 36 36 37 39 40 40 39 39 38 37 36 36 35 36 37 39 39 37 36 34 32 31
38 40 40 40 41 42 41 39 39 40 39 40 39 37 39 38 37 36 37 37 36 36 35 35 37 39 39 38 38 36 36 36 35 35 37 37 37 37 39 38 37 33 29
39 40 40 41 41 40 40 40 38 36 36 36 36 35 34 36 37 37 36 36 35 35 34 33 35 36 37 37 36 35 35 35 35 36 33 33 34 35 35 35 35 34 33
39 40 40 39 38 38 35 35 34 34 34 34 34 33 32 33 37 36 36 36 35 35 34 34 34 29 30 31 31 32 32 30 27 26 27 26 27 27 27 29 29 31 33
39 38 38 37 35 34 32 34 33 33 34 33 32 31 32 32 36 36 36 35 34 34 33 33 27 27 27 27 27 28 27 26 25 26 25 25 21 23 23 25 25 26 27
38 37 37 37 35 33 32 30 31 31 34 33 31 29 30 31 33 34 34 35 35 33 35 28 27 27 27 27 27 26 25 24 24 24 24 24 23 22 23 24 25 25 25
37 36 36 36 35 32 30 29 29 31 33 33 31 32 32 33 33 33 34 36 38 37 33 27 27 28 27 25 25 24 24 24 23 25 24 24 23 23 23 24 25 25 24
36 36 35 34 32 30 28 27 29 31 32 29 32 34 35 34 32 33 35 38 37 36 34 29 27 27 26 23 25 24 24 23 23 24 23 22 22 22 22 24 25 27 25
35 35 34 33 33 31 26 26 26 27 28 28 32 34 35 35 36 37 37 36 37 36 28 28 27 26 23 29 27 27 24 24 22 22 21 22 22 21 23 24 25 24 25
35 35 35 35 33 25 25 23 24 25 25 31 33 35 35 35 35 36 37 36 34 33 32 27 26 26 25 29 30 31 27 25 24 22 22 21 19 22 22 24 25 25 26
34 33 31 27 24 23 22 23 22 23 29 33 34 35 36 35 35 35 35 35 34 33 27 27 26 25 25 29 30 29 26 25 25 24 23 22 20 22 22 23 26 26 26
34 26 22 22 22 21 22 22 22 25 29 30 30 32 34 35 36 35 34 33 30 26 27 27 26 25 25 26 25 27 23 23 22 22 22 20 20 22 26 25 25 24 23
22 18 18 20 19 20 20 22 23 27 28 29 29 31 34 34 34 33 32 31 27 27 27 26 26 25 23 22 23 22 23 18 20 21 20 21 22 25 25 25 24 22 21
17 19 19 19 20 21 23 24 26 26 28 29 29 29 30 32 33 33 33 29 27 26 24 22 23 23 22 21 20 20 20 20 21 19 20 21 24 27 25 25 25 24 25
17 18 20 21 22 24 26 25 25 27 29 28 28 27 28 28 26 27 25 25 24 23 22 11 16 20 21 19 20 20 19 20 20 21 22 24 24 24 26 26 27 25 26
18 20 20 22 24 25 27 26 27 28 29 28 27 27 28 27 25 23 23 24 23 20 20 22 14 19 21 18 21 21 20 21 21 22 24 22 22 23 24 24 25 24 24
19 21 22 23 24 27 28 28 28 28 28 27 27 27 25 26 26 23 24 22 19 17 22 19 17 15 17 17 18 20 17 21 23 21 22 21 21 22 23 22 23 23 23
23 24 25 26 27 29 29 29 29 29 27 26 26 25 25 25 26 23 23 24 22 21 19 18 16 4 4 15 22 20 20 20 19 14 17 17 17 17 17 18 20 20 22
25 26 28 28 29 29 29 30 29 29 27 26 25 24 24 23 25 24 23 25 26 28 28 25 16 11 18 21 21 20 17 16 17 13 11 14 15 14 16 16 16 17 19

GFSMW_sfc_dewp_027.txt.gz
Dewpoint
45 46 46 47 49 50 49 51 51 49 51 50 49 46 47 45 44 41 42 41 41 41 41 41 41 42 41 41 42 41 41 41 43 42 39 42 42 40 37 39 40 42 42
43 44 46 47 48 48 50 45 45 44 44 45 46 45 45 44 43 41 41 41 41 39 40 41 42 42 42 42 43 42 42 42 42 39 39 35 33 37 34 36 34 38 41
42 44 46 48 48 44 43 42 43 43 44 45 44 44 44 44 42 40 39 39 40 40 41 42 42 42 42 41 41 41 40 39 41 40 37 34 32 34 34 34 36 37 36
45 45 46 45 43 43 43 43 43 43 44 44 43 42 41 42 42 39 38 38 39 40 40 41 42 41 41 40 40 40 39 38 37 38 38 37 36 34 30 33 33 34 34
43 43 43 42 43 43 43 43 44 44 44 44 44 44 42 41 40 39 37 37 38 39 38 40 41 40 40 39 38 38 37 38 38 36 36 35 35 34 35 29 30 31 34
43 43 43 44 44 44 43 42 44 44 44 43 43 42 41 39 37 36 36 36 37 38 37 38 41 39 39 39 38 38 37 36 36 36 35 36 35 33 34 32 31 31 32
42 43 43 43 43 43 42 42 43 43 43 42 41 40 39 38 36 36 36 35 36 36 35 36 39 39 39 39 39 37 36 35 34 34 34 34 35 38 36 34 33 33 32
40 42 42 41 41 42 41 41 42 42 42 41 40 40 39 38 37 36 36 36 37 36 36 34 39 39 39 39 38 37 36 35 34 33 33 34 35 36 36 36 34 30 31
39 39 40 40 40 39 39 39 39 40 40 39 38 39 40 39 38 37 36 37 37 36 36 34 36 37 39 38 37 36 35 34 34 33 33 33 33 32 34 35 35 31 26
39 39 39 39 40 40 38 38 38 37 37 36 36 35 35 36 37 37 36 37 36 36 35 34 34 36 36 36 35 34 34 33 32 32 26 26 28 28 29 29 31 32 30
39 39 38 37 37 35 33 34 35 34 34 34 34 34 34 33 35 36 37 36 36 35 35 35 35 32 30 30 30 29 29 27 25 25 25 25 26 25 25 26 26 26 27
37 37 37 36 34 33 31 34 32 32 34 34 34 32 32 31 32 35 36 36 35 36 34 35 36 35 29 28 27 27 26 25 24 24 24 24 22 23 23 23 24 24 25
37 36 36 36 35 32 31 30 30 30 32 33 31 31 32 33 33 33 34 34 35 35 36 36 36 31 29 28 28 27 25 23 24 24 24 23 23 22 22 23 23 24 25
36 35 35 34 33 30 30 28 28 31 30 29 31 32 33 33 33 32 33 34 35 36 35 36 31 31 30 27 25 23 23 24 24 25 24 23 22 21 22 21 24 25 26
35 35 34 33 32 32 27 26 26 27 28 29 31 33 34 34 35 35 36 36 36 36 37 35 32 30 27 23 24 25 25 24 24 24 23 23 23 25 22 19 20 22 23
35 34 34 34 34 26 24 24 23 25 26 29 32 34 34 34 34 34 35 36 37 33 34 34 31 25 23 29 29 30 27 25 24 24 24 23 24 23 22 23 24 23 22
34 34 34 33 25 23 23 22 23 24 25 32 33 34 35 34 34 35 34 34 33 33 32 30 26 25 26 29 30 29 26 26 25 24 23 20 18 21 21 23 23 24 26
34 31 25 24 23 22 21 23 22 23 31 31 32 33 33 33 34 34 33 34 34 30 28 26 25 25 25 27 25 27 24 22 22 20 20 20 20 21 21 23 26 23 24
33 24 21 22 21 19 20 21 22 27 28 28 29 30 31 33 33 33 32 32 30 27 27 26 25 24 21 22 22 23 22 21 20 20 20 20 20 23 26 26 24 23 23
20 17 19 19 19 19 21 22 25 26 27 28 28 30 30 31 31 31 31 32 29 27 26 25 24 22 21 21 20 20 20 14 20 20 19 21 22 25 25 25 24 22 21
17 20 20 20 20 22 24 25 26 26 27 28 29 28 28 28 28 29 30 28 26 25 24 23 23 22 21 20 20 20 19 20 20 19 20 21 24 23 25 25 25 25 25
18 20 21 22 23 24 26 25 25 27 27 28 27 27 28 27 24 25 25 25 24 23 23 9 15 20 21 19 21 22 21 20 19 21 21 23 21 23 24 24 26 25 25
19 21 21 23 25 25 27 26 27 28 28 28 27 27 26 27 25 22 23 23 22 19 19 21 14 18 21 18 20 23 22 21 20 20 20 20 20 20 21 23 23 23 22
21 22 24 25 26 27 28 29 29 29 28 27 27 27 25 25 26 23 23 22 19 17 21 18 17 15 16 16 17 21 17 20 19 17 17 17 20 18 19 19 20 21 22
24 25 26 27 27 29 29 29 29 28 27 27 27 26 25 24 26 23 23 25 23 21 19 18 17 4 4 14 22 20 18 13 17 10 8 11 14 14 15 16 17 17 18
26 27 28 28 29 29 28 29 30 30 30 29 28 27 25 23 25 25 23 25 25 27 28 28 16 11 19 23 21 19 18 16 15 10 4 1 5 10 14 13 14 15 14

GFSMW_sfc_dewp_030.txt.gz
Dewpoint
45 46 48 49 50 53 56 57 53 53 54 51 47 45 45 42 41 40 41 41 41 41 41 42 42 42 41 41 42 42 41 41 41 40 37 39 41 37 36 35 37 39 39
44 46 47 48 50 52 53 53 52 52 47 46 45 44 43 41 40 40 40 39 40 41 41 41 41 40 39 39 41 40 39 40 40 38 37 33 33 35 33 36 35 36 37
44 46 48 49 50 49 44 43 43 43 44 45 44 44 43 43 39 38 38 39 40 41 41 40 39 39 40 39 39 38 37 37 38 38 36 32 30 32 34 33 35 36 36
45 46 46 43 41 42 42 43 43 43 43 43 43 42 41 41 41 38 38 37 39 39 39 40 39 39 40 38 39 39 38 37 35 36 38 37 36 31 29 34 33 34 33
45 43 43 42 42 43 43 43 44 44 44 43 43 43 41 40 39 38 37 37 38 39 38 38 39 39 39 38 38 37 37 37 36 35 35 35 34 34 33 30 31 34 34
42 43 43 43 43 43 42 44 44 44 44 43 43 41 39 38 37 37 36 36 37 38 37 37 39 39 38 38 38 37 36 36 35 35 34 34 33 32 33 30 30 31 32
42 43 43 43 44 43 41 43 43 43 43 42 41 40 39 38 37 36 36 35 35 36 37 35 38 39 39 38 38 37 36 35 34 33 33 33 34 35 34 32 29 32 29
42 43 43 42 43 42 41 41 41 42 41 41 40 40 39 38 38 36 36 36 35 36 36 35 35 38 38 38 38 37 36 35 34 32 32 33 34 34 34 33 31 26 28
40 41 41 41 41 39 39 40 40 41 40 39 38 38 39 39 38 37 37 36 36 37 36 35 34 36 37 39 39 38 35 34 34 33 32 32 31 29 30 30 30 29 22
39 39 39 39 39 38 36 39 39 38 39 38 37 36 35 34 35 36 36 36 37 36 35 35 35 36 35 34 37 36 34 33 33 33 28 26 27 27 28 27 27 28 26
38 38 37 36 35 33 33 35 35 34 34 34 34 34 33 32 32 33 35 36 36 36 35 35 35 34 34 34 32 31 30 29 27 25 25 25 25 25 24 24 24 25 25
37 37 36 34 33 32 32 32 31 31 31 34 32 30 31 32 32 32 33 34 35 35 35 34 34 35 36 32 29 29 27 25 24 24 24 24 22 23 22 22 22 22 23
36 35 35 35 33 30 31 30 29 30 30 29 29 31 31 32 32 32 32 33 34 34 35 35 36 36 32 29 29 27 25 23 24 24 24 24 24 22 21 21 21 22 22
35 34 34 33 32 30 29 27 28 29 27 28 30 31 32 33 32 32 33 34 35 35 35 36 37 34 30 29 25 23 24 24 24 25 25 24 23 22 21 21 22 20 22
35 34 34 33 32 32 27 25 25 26 27 27 30 32 33 33 33 33 34 35 35 35 34 33 32 30 26 23 25 26 26 26 26 25 25 25 25 26 24 21 20 20 21
34 33 33 34 34 25 23 23 22 24 26 26 32 33 33 33 33 34 34 34 34 34 34 32 29 25 24 30 30 29 26 25 25 23 23 23 21 21 22 22 23 22 21
34 34 34 30 25 22 22 21 22 24 25 31 32 32 33 33 32 33 33 32 32 30 30 27 25 24 26 29 26 27 24 22 21 19 19 18 17 21 20 22 23 23 25
34 33 26 24 23 22 20 22 22 22 30 29 29 29 31 31 32 32 34 31 32 32 28 25 24 24 24 23 23 24 23 21 20 19 19 19 20 21 21 24 26 24 23
34 28 22 23 22 19 20 21 22 27 27 27 28 28 30 29 30 30 30 30 31 30 27 25 24 21 20 22 21 21 21 20 19 19 19 20 20 23 26 24 24 23 22
23 18 21 19 19 20 21 21 23 25 26 27 28 29 28 27 27 27 28 30 30 27 26 24 23 21 20 20 20 21 20 15 20 20 20 21 21 23 24 25 23 22 21
17 20 20 20 20 22 23 24 25 25 26 28 28 28 27 27 26 25 27 28 26 25 23 23 23 21 21 20 20 22 20 20 21 20 20 21 22 21 22 24 24 24 24
20 20 21 22 23 24 25 25 25 27 28 28 28 27 27 27 25 24 24 25 23 23 23 10 15 20 21 21 21 22 21 20 18 19 19 20 20 20 20 22 24 22 22
19 21 22 24 26 26 27 27 28 29 29 28 28 27 27 25 25 24 23 23 22 19 19 20 15 18 21 19 20 22 22 19 16 18 18 18 18 18 19 18 19 20 20
21 22 24 25 26 28 29 29 29 29 29 28 27 27 27 25 25 24 23 22 19 17 20 19 18 16 16 16 17 21 18 17 18 15 14 14 18 14 15 17 18 18 18
24 25 27 27 27 29 29 28 28 29 27 27 28 27 28 26 24 25 23 25 23 22 20 20 18 7 5 15 20 20 16 11 15 8 7 9 10 11 13 14 14 15 14
25 27 27 27 29 29 27 28 29 29 29 29 29 29 29 26 24 25 26 26 26 26 28 28 20 13 20 23 23 19 18 16 15 9 2 -3 -4 3 11 12 12 12 10

GFSMW_sfc_dewp_033.txt.gz
Dewpoint
48 51 54 57 58 59 57 57 55 55 55 53 48 44 45 43 42 41 43 43 43 43 43 39 40 39 37 40 41 38 38 34 38 34 31 34 43 38 36 33 33 35 35
50 51 52 55 58 57 56 57 57 54 51 47 46 46 43 42 41 41 42 42 43 42 41 41 39 40 37 39 40 39 34 35 39 34 32 26 26 35 31 34 32 36 32
49 49 52 55 56 56 56 54 52 51 49 47 46 44 43 42 40 40 39 41 42 40 41 41 40 41 40 37 40 39 35 31 34 36 32 26 23 29 30 30 32 33 33
47 48 48 48 48 47 48 49 48 46 47 47 46 46 44 43 42 41 41 40 42 41 39 40 41 41 41 39 37 37 37 36 31 32 33 35 33 26 23 26 28 33 32
46 44 43 42 43 45 46 47 46 45 46 45 46 46 45 43 41 42 41 42 41 42 40 40 41 41 40 39 40 40 40 38 35 32 32 32 30 30 29 25 25 27 28
44 43 43 44 44 45 46 47 46 46 46 46 46 46 45 43 42 42 41 41 40 40 41 39 41 42 41 41 40 41 40 39 37 35 34 32 29 26 29 26 26 25 26
43 43 43 43 44 44 46 46 46 44 45 45 45 44 44 44 42 41 40 40 39 38 39 41 41 40 41 41 41 41 40 39 38 36 33 34 33 34 34 29 26 26 23
44 43 44 45 45 44 44 45 44 44 43 43 43 43 43 42 41 41 40 39 39 39 41 40 39 38 39 41 41 39 39 41 40 38 37 36 35 35 32 29 29 26 23
43 44 45 45 44 44 43 45 43 43 42 43 42 42 41 41 41 40 40 39 40 37 39 40 39 39 39 39 39 37 37 38 38 37 37 35 35 33 31 30 29 27 23
42 43 43 43 42 41 41 43 42 42 41 40 40 38 38 37 37 37 37 37 37 38 38 38 39 39 38 37 36 35 34 33 35 34 34 31 30 28 30 28 27 25 24
41 41 40 40 38 36 37 39 39 37 36 36 37 36 35 35 35 35 35 36 37 36 36 37 38 37 36 37 36 35 32 30 30 29 28 27 27 26 25 24 22 20 20
40 38 37 35 34 34 36 35 34 32 34 35 33 33 34 33 34 34 34 34 33 35 35 37 36 36 37 37 33 29 30 29 28 26 26 26 23 25 24 23 21 20 20
37 37 35 34 33 33 34 31 32 31 29 28 29 32 33 33 33 32 33 34 35 36 38 37 37 35 31 31 30 30 28 25 26 26 26 25 25 24 23 22 21 20 20
36 36 35 34 32 31 31 30 30 29 27 27 29 32 34 33 33 33 34 35 36 36 36 36 37 35 32 30 27 25 26 27 27 26 25 25 23 22 21 21 22 21 22
35 35 34 34 33 33 29 28 27 28 28 26 30 34 34 33 33 33 34 36 35 34 35 34 34 30 26 25 28 28 27 25 22 21 19 19 21 23 22 19 19 19 18
36 35 34 33 34 30 26 25 25 25 28 26 30 33 33 33 33 33 34 35 34 34 34 33 29 27 25 30 27 27 24 20 17 16 16 16 18 19 21 22 23 22 20
36 34 34 34 32 26 25 23 23 25 26 28 32 31 31 31 32 32 33 32 34 33 34 31 27 26 27 25 24 26 21 19 17 16 15 15 15 19 18 20 22 25 25
36 35 33 28 26 24 23 24 22 24 27 31 29 29 30 30 30 30 29 31 35 34 33 28 26 25 20 23 22 22 19 19 17 16 17 16 17 18 20 24 21 20 19
37 34 27 26 24 21 21 22 23 26 28 27 28 28 30 29 28 28 29 30 32 34 32 27 25 22 20 21 21 21 22 20 19 18 18 18 17 21 24 22 23 19 17
33 24 24 22 21 21 23 23 23 26 26 28 28 29 30 28 28 28 27 30 33 33 29 25 24 22 21 19 20 21 24 24 21 19 17 18 19 22 22 23 22 21 18
20 22 21 21 22 23 24 24 26 26 27 29 29 29 28 28 28 27 26 27 28 28 28 26 25 23 22 21 20 21 24 22 21 18 17 17 19 19 20 20 22 23 21
20 21 22 23 25 25 25 25 26 28 29 30 29 29 29 27 27 27 25 25 26 26 26 27 26 24 25 22 21 21 23 21 22 20 17 19 18 18 18 18 19 19 20
24 21 22 25 26 26 27 27 28 30 29 29 28 29 28 28 27 25 25 24 24 25 26 24 25 24 25 24 21 21 24 21 21 21 17 17 17 16 15 16 17 17 18
21 23 24 25 26 28 29 30 29 28 29 29 28 28 28 28 29 25 24 23 25 25 24 24 23 24 24 25 23 23 24 20 19 18 16 16 15 14 15 15 15 16 15
24 24 26 26 25 29 29 28 28 29 28 29 29 29 29 29 28 26 25 25 26 26 25 24 26 27 26 25 24 24 23 23 19 17 17 14 14 11 12 14 13 11 10
25 26 26 26 27 28 28 28 29 29 29 30 30 30 30 30 29 26 25 28 28 28 27 27 29 30 27 24 24 24 20 17 15 15 16 15 15 13 10 13 12 12 8

GFSMW_sfc_dewp_036.txt.gz
Dewpoint
48 52 56 57 57 59 60 60 59 58 58 56 54 49 45 45 45 44 45 46 45 42 41 37 38 37 37 37 37 34 34 32 36 32 28 27 33 37 33 31 30 32 33
49 53 56 58 58 58 60 60 59 60 57 55 50 48 47 45 44 44 45 45 42 40 37 38 37 38 34 37 38 38 35 31 33 34 30 24 24 25 30 30 31 33 32
50 53 56 58 58 58 59 58 59 58 54 50 48 47 46 45 43 43 43 43 42 39 39 39 38 39 38 35 38 38 37 33 33 34 31 27 23 26 27 28 28 32 31
51 54 54 56 57 58 58 56 54 52 50 49 46 46 43 42 44 44 44 40 42 41 37 37 40 40 39 39 38 34 39 36 33 32 29 33 31 26 25 26 26 26 26
51 49 47 49 51 54 54 52 50 48 48 48 48 47 46 46 44 44 42 42 42 41 39 39 40 40 39 40 41 40 38 36 34 34 30 29 28 28 25 24 23 23 24
47 44 43 44 44 47 49 49 47 46 47 48 48 48 47 44 41 40 38 35 37 37 38 39 42 42 42 42 41 40 39 38 38 35 32 29 27 25 25 26 26 23 22
44 42 41 42 44 47 48 48 46 46 47 48 47 46 43 40 38 38 37 39 37 37 38 41 41 40 40 41 41 41 39 39 38 37 34 30 29 29 29 27 23 22 21
43 41 42 43 44 46 47 46 45 44 45 45 43 42 40 40 39 39 40 39 38 37 37 36 35 35 35 37 40 39 38 37 37 37 36 31 29 28 27 25 25 25 21
42 42 43 45 45 46 47 47 44 43 43 43 42 41 42 40 39 38 38 35 34 30 31 34 33 32 34 36 38 38 38 36 35 35 35 30 28 29 28 27 26 27 26
41 43 44 46 46 45 46 47 44 42 42 41 41 39 39 37 35 35 33 32 32 31 32 32 32 33 34 36 37 37 37 36 34 32 31 29 27 27 26 24 25 23 22
42 43 44 45 44 42 42 41 41 39 39 37 38 37 34 33 33 32 31 31 33 32 31 32 33 33 34 36 38 39 38 32 31 31 30 29 28 26 25 24 23 21 20
42 43 44 43 40 38 37 39 37 35 35 35 33 31 30 30 32 31 30 33 33 32 32 34 33 34 34 35 33 33 32 31 30 29 28 26 22 26 25 22 22 20 21
42 42 41 39 37 36 36 35 34 33 31 28 27 28 29 30 30 30 32 32 32 32 34 33 33 33 35 34 33 31 29 28 28 28 27 26 25 24 22 21 20 19 19
40 39 38 37 35 35 33 33 33 31 28 24 24 27 30 31 31 32 32 32 33 33 32 33 34 34 32 29 28 26 28 28 26 26 25 23 21 20 21 19 19 17 19
38 38 38 36 33 33 32 31 31 29 26 24 24 27 32 32 31 33 32 32 34 33 33 33 33 31 28 26 29 27 26 26 23 22 19 19 20 21 21 19 19 19 18
38 37 37 35 33 33 32 30 28 26 25 25 25 29 32 30 31 31 31 32 33 32 32 32 31 29 24 28 25 26 24 22 19 18 18 18 19 19 21 22 22 22 21
38 37 36 34 33 33 29 27 24 25 25 24 27 30 30 30 30 29 29 29 31 32 33 32 31 29 29 23 23 23 21 20 19 18 17 16 14 19 18 20 22 25 24
38 38 36 34 33 28 25 25 22 23 24 25 28 28 29 28 28 28 29 30 31 32 31 32 31 29 26 22 21 22 22 22 21 19 19 19 18 18 20 20 21 20 21
39 38 35 31 27 24 23 22 22 22 24 25 25 26 27 27 28 28 30 30 29 29 31 32 30 29 26 21 20 22 23 23 22 20 19 18 17 19 21 21 22 20 18
39 35 29 26 23 22 22 22 21 23 22 25 26 26 27 28 28 29 29 29 29 28 31 30 29 26 27 22 20 21 25 27 23 21 19 20 17 19 20 21 21 22 18
34 27 24 21 22 23 24 22 22 22 24 27 27 26 26 27 29 29 29 28 27 28 30 31 29 28 27 25 21 20 26 25 23 21 19 19 18 18 19 18 21 21 18
23 21 22 25 26 24 24 19 21 24 27 28 26 26 27 28 26 28 28 27 27 27 28 33 31 28 28 26 24 22 22 23 25 22 21 22 17 18 17 17 17 18 20
20 27 29 28 26 24 23 21 22 28 28 27 26 27 28 27 26 27 27 26 25 26 26 25 26 25 26 26 25 23 21 23 24 24 21 18 16 15 14 14 15 17 19
27 25 28 23 24 26 26 26 27 27 27 27 27 27 28 27 26 25 25 25 26 26 25 25 24 24 25 26 26 26 25 24 23 22 20 19 17 16 15 16 15 17 16
30 29 24 23 21 24 26 26 26 28 26 27 27 28 29 28 26 25 25 26 26 27 26 25 25 28 28 28 26 25 25 26 23 22 22 20 18 16 14 16 15 15 13
29 23 24 25 24 26 25 26 26 27 28 28 28 29 29 29 27 26 25 28 28 28 28 28 29 31 28 28 26 24 24 22 19 20 22 22 22 20 15 15 15 15 13

GFSMW_sfc_dewp_039.txt.gz
Dewpoint
43 48 51 50 50 57 59 59 59 59 59 56 55 53 51 47 47 45 47 48 47 43 43 40 40 40 36 37 40 38 38 35 35 31 32 32 34 32 29 31 32 32 30
46 50 53 54 54 58 59 60 59 59 58 52 54 54 50 47 47 46 48 47 44 41 39 41 39 39 37 38 39 40 37 36 35 32 31 28 28 28 30 30 29 32 30
46 50 53 56 57 58 58 59 58 58 56 56 51 49 48 47 45 45 46 44 42 40 39 39 39 39 39 37 39 39 38 33 34 35 31 28 26 27 28 30 29 33 29
46 50 53 56 57 57 59 57 55 54 52 50 48 48 43 42 44 44 44 44 43 41 38 37 39 41 39 39 39 35 39 37 33 33 29 34 31 26 25 27 28 28 27
49 51 53 56 57 57 56 54 53 50 48 48 47 47 46 47 46 46 45 44 42 40 38 39 40 41 39 40 42 42 42 38 36 35 36 35 32 30 29 27 25 25 26
50 49 51 50 50 53 53 51 49 47 48 48 49 48 47 44 43 43 40 37 35 35 37 37 40 40 39 39 39 40 38 39 40 38 39 35 33 29 28 28 26 26 24
47 45 45 45 47 50 50 49 46 46 47 48 48 47 45 43 39 39 37 36 35 35 37 39 37 35 35 35 36 38 39 40 41 38 35 37 35 33 30 29 28 26 24
46 43 42 42 45 47 48 47 46 46 47 47 45 44 41 39 38 37 37 36 35 34 35 33 33 33 32 33 35 35 38 38 41 39 35 32 35 32 30 29 29 29 26
44 41 41 43 44 46 48 48 46 44 45 44 43 42 44 39 36 37 37 34 34 30 31 33 32 32 32 33 34 34 36 39 39 39 35 34 35 32 32 31 28 28 27
41 41 42 44 45 46 48 49 47 44 42 41 42 40 41 37 35 35 33 32 32 32 31 31 31 33 33 33 33 35 37 37 38 34 33 32 32 30 30 27 27 24 24
41 41 42 44 46 46 47 47 44 41 41 39 39 42 36 34 33 33 32 30 32 31 29 30 32 32 31 35 37 36 35 33 33 33 32 31 30 29 26 26 25 24 22
40 42 43 45 46 45 45 43 40 39 37 36 39 37 34 30 31 31 29 31 31 30 30 31 31 32 32 33 33 33 33 32 30 29 27 25 20 25 24 23 21 22 21
40 42 43 44 44 43 42 40 39 36 34 36 33 30 30 30 30 28 30 31 31 30 31 31 31 32 32 32 33 31 31 28 27 25 25 24 24 23 21 21 21 20 17
40 41 43 43 42 41 39 38 36 36 35 31 27 26 29 30 29 29 31 32 30 31 31 31 31 32 31 29 28 25 27 26 23 24 24 22 21 21 21 19 19 18 18
40 41 42 41 40 39 38 34 37 35 32 28 25 26 28 30 30 31 32 31 32 32 31 30 31 31 29 25 29 26 26 24 23 23 20 20 21 20 21 18 19 19 18
39 40 40 39 39 37 35 35 35 32 30 26 26 26 26 29 30 31 31 30 30 30 30 30 31 31 26 28 25 25 25 23 21 21 20 19 23 22 23 22 22 22 20
38 39 39 39 38 36 35 34 30 28 27 26 25 24 28 28 28 27 27 28 29 31 31 31 32 30 30 26 24 23 23 23 22 22 20 18 14 21 19 22 22 22 23
37 39 39 39 38 36 34 30 29 28 26 24 23 24 27 27 26 26 27 29 31 31 30 31 32 30 28 26 23 22 23 23 23 23 21 20 19 20 20 18 19 19 19
38 39 39 38 36 32 28 28 25 23 22 22 22 23 24 24 25 26 27 30 29 29 29 30 31 31 30 25 23 21 24 24 23 22 21 20 19 21 20 18 20 17 15
39 39 39 36 32 28 26 24 26 25 21 20 23 22 24 24 24 26 28 29 28 27 27 28 31 32 30 26 24 22 25 26 24 23 20 23 18 19 19 20 19 19 16
38 39 36 30 28 26 27 29 25 22 20 24 24 24 24 24 26 28 29 28 28 28 31 32 32 30 30 29 25 23 24 26 24 22 21 21 21 19 18 18 19 21 17
36 31 29 25 26 31 28 24 20 20 24 25 25 24 24 25 25 27 28 27 28 28 29 35 32 30 30 29 27 25 24 23 24 23 23 24 21 19 18 17 16 17 19
27 25 25 31 31 28 24 20 21 26 25 26 26 25 26 26 26 27 26 26 26 27 28 28 30 29 29 28 29 26 25 23 25 25 24 21 20 18 18 15 16 19 19
26 31 34 33 32 28 24 23 27 27 27 26 26 26 26 27 27 26 24 24 28 29 28 28 27 27 26 27 28 30 28 25 27 26 25 23 22 21 21 19 19 19 19
35 35 33 28 21 22 25 26 26 26 25 25 26 27 29 29 27 25 25 27 28 29 28 28 29 33 30 28 29 28 28 29 27 24 24 23 21 20 19 19 17 18 17
34 29 24 24 23 24 26 25 26 25 27 28 28 30 30 30 28 26 26 29 29 29 28 29 30 33 29 28 28 27 26 25 24 22 23 24 25 23 21 19 18 18 17

GFSMW_sfc_dewp_042.txt.gz
Dewpoint
38 44 48 49 54 60 60 60 60 59 59 57 55 54 53 51 51 48 50 51 50 47 45 46 44 43 42 42 41 41 40 40 40 36 34 35 35 33 33 33 33 33 32
38 47 50 52 56 59 60 60 59 59 58 55 54 54 52 50 49 49 51 51 48 45 44 44 43 43 42 42 43 42 41 39 40 36 35 31 31 33 31 33 32 33 33
44 48 51 53 57 60 60 59 59 58 58 54 56 55 52 51 50 49 50 49 47 44 43 42 42 43 43 42 42 41 41 38 38 38 36 31 29 31 32 30 31 33 32
46 48 51 54 57 59 60 60 59 57 57 57 52 51 47 46 47 48 49 46 46 45 42 41 42 43 44 43 43 39 42 40 37 38 36 36 35 31 29 29 31 32 29
45 48 51 55 55 58 59 60 58 54 54 52 52 51 50 49 49 49 49 47 48 46 43 43 43 43 43 43 43 43 41 41 40 38 37 37 37 35 32 29 29 29 29
45 49 54 56 55 58 59 57 54 52 51 51 52 51 51 48 48 47 47 46 43 41 42 43 43 42 41 39 39 39 38 38 39 40 39 38 36 34 33 32 29 27 28
48 50 52 53 54 54 55 54 51 48 50 51 51 51 49 47 44 43 42 40 40 41 41 40 38 38 38 38 38 37 38 38 39 39 39 37 36 36 34 33 30 28 29
50 48 50 49 51 52 52 51 49 47 49 51 50 49 46 45 44 44 41 40 39 39 38 37 37 37 36 36 36 37 37 37 40 38 39 38 36 36 34 32 31 29 28
46 45 47 48 49 50 51 51 48 47 49 50 48 46 44 43 42 40 39 39 38 33 37 36 35 35 36 37 37 36 37 38 38 38 38 35 35 35 33 33 32 29 25
45 44 43 46 46 49 51 52 50 47 48 46 46 44 44 42 40 39 38 36 35 35 35 35 34 35 36 36 38 37 37 36 37 35 34 34 34 33 32 30 30 29 26
44 43 42 44 46 48 49 50 48 45 45 44 44 43 41 40 38 37 35 34 34 34 33 33 34 34 34 35 35 35 34 34 34 33 32 32 31 31 30 29 27 25 24
43 42 42 44 45 47 48 49 48 45 43 43 41 42 40 38 37 36 34 33 33 34 33 33 33 33 33 33 34 34 33 32 32 31 29 28 23 26 25 25 24 22 21
42 42 43 43 45 47 47 47 46 43 40 37 38 38 38 34 34 34 32 33 33 33 33 33 34 33 34 32 33 33 32 31 29 29 27 26 25 23 24 22 20 21 19
40 40 42 43 46 46 46 44 42 41 38 37 36 36 36 35 34 32 33 34 34 33 33 34 34 34 32 31 31 30 29 28 26 27 25 25 23 22 20 18 19 18 19
37 39 42 44 45 45 44 42 41 39 40 36 33 34 34 34 33 33 34 35 35 33 34 34 34 32 32 28 30 27 27 27 25 25 24 22 25 25 23 18 20 21 20
34 40 42 43 44 43 41 40 38 39 37 35 33 33 31 32 33 33 35 35 34 33 33 33 33 32 29 30 28 26 24 25 25 24 23 22 25 24 27 26 22 23 20
33 39 40 42 43 41 41 39 38 38 34 32 31 30 31 31 32 31 30 30 32 34 34 33 33 33 32 29 26 24 23 24 25 24 23 21 17 24 21 22 21 20 22
35 39 41 42 42 41 39 39 34 31 33 31 28 27 30 30 30 30 30 32 33 33 33 32 33 33 31 30 27 24 22 25 25 25 23 22 21 22 20 20 18 18 19
37 39 41 42 42 39 36 32 31 30 28 28 27 25 27 27 28 28 31 32 32 32 31 31 32 32 31 29 26 24 24 25 25 24 24 23 20 21 21 19 19 18 17
36 38 40 40 38 33 31 30 26 29 27 26 27 27 28 27 27 29 31 32 32 30 30 30 32 32 31 29 27 25 27 25 26 25 23 23 20 19 20 19 19 17 18
38 40 38 35 31 30 30 31 31 30 28 28 28 26 26 27 28 30 30 30 30 30 31 30 31 31 31 32 28 27 25 26 26 25 24 25 22 22 20 19 19 19 19
34 33 31 31 32 32 32 30 29 26 27 30 30 29 29 28 25 30 30 30 30 30 30 32 30 31 30 31 30 28 26 26 23 24 24 25 24 22 21 19 19 18 20
28 27 31 32 32 32 30 29 27 27 30 31 31 29 29 27 27 29 29 29 29 29 29 30 29 31 31 31 31 29 28 27 24 25 26 25 24 24 22 22 21 19 20
34 34 35 34 34 30 26 26 29 30 30 29 29 29 29 29 29 29 28 28 31 30 30 29 29 29 29 28 29 28 28 27 26 25 27 25 23 20 20 20 22 22 20
34 33 32 29 24 27 29 29 28 29 27 28 27 29 31 31 31 29 29 29 30 31 30 30 31 30 30 29 28 27 31 31 29 22 21 21 22 22 21 22 21 21 20
31 28 28 28 29 28 26 26 27 27 28 28 29 32 33 32 31 29 28 30 29 30 30 30 29 29 30 29 29 29 28 27 26 21 19 19 20 22 20 18 19 19 18

GFSMW_sfc_dewp_045.txt.gz
Dewpoint
42 45 48 52 56 59 58 58 57 57 57 56 54 53 52 51 49 47 48 49 49 45 45 45 43 41 40 38 40 39 38 38 38 35 34 34 34 31 33 33 31 33 32
40 43 45 55 58 58 58 58 57 57 57 56 54 53 50 48 47 47 47 49 47 44 42 41 41 40 39 40 40 39 39 39 38 35 34 32 32 33 33 32 30 31 32
41 45 49 57 58 58 59 58 58 57 57 57 53 53 50 48 48 47 48 47 44 42 42 41 41 40 41 40 40 40 39 38 38 37 36 32 29 32 32 31 31 31 32
46 47 49 57 58 59 59 58 58 58 58 55 54 52 48 47 47 47 48 44 44 43 41 40 40 41 42 40 41 41 40 40 37 38 37 36 35 32 31 31 32 31 29
47 48 50 56 58 59 59 58 58 58 57 56 53 50 48 47 48 48 46 45 45 44 41 42 42 40 41 38 36 35 36 37 37 37 37 36 36 35 33 31 29 31 30
47 49 52 55 58 59 59 59 58 57 55 53 50 48 48 47 47 47 46 46 45 43 41 39 37 37 36 35 36 35 35 36 36 37 38 37 36 36 36 33 31 30 29
48 52 54 54 56 57 58 58 58 52 50 49 49 49 45 44 44 44 43 40 39 39 36 35 35 35 35 34 35 35 35 35 36 37 38 39 37 37 37 36 33 29 29
50 54 55 54 55 56 56 55 51 49 49 48 49 47 42 42 41 42 40 40 39 37 35 35 34 33 34 34 34 35 35 36 36 36 37 38 38 37 36 35 33 30 28
47 50 51 52 53 52 51 49 47 47 49 49 46 43 42 41 39 39 39 38 37 34 35 34 31 32 33 34 37 36 36 35 36 36 35 34 34 35 33 34 32 30 26
46 47 48 49 50 49 49 49 47 48 49 45 43 41 41 39 39 38 37 36 35 34 33 31 31 32 34 35 34 35 34 34 34 34 32 33 33 33 32 31 31 30 27
45 45 45 47 48 48 49 48 47 47 44 42 42 41 39 40 40 38 37 35 34 33 31 31 31 32 34 33 33 33 33 32 32 32 31 30 29 27 27 26 25 23 22
45 44 42 45 46 47 48 49 46 44 43 42 41 40 40 41 37 36 35 35 33 33 31 32 32 33 33 32 31 33 33 32 31 31 29 27 23 23 24 23 20 20 20
44 43 42 44 45 47 48 48 45 43 40 38 39 43 42 39 36 35 35 33 33 31 31 32 33 33 33 30 31 32 32 30 29 26 26 24 23 21 21 19 19 19 18
43 42 41 43 45 47 48 47 43 40 39 38 39 39 39 37 34 33 33 33 32 31 32 33 34 35 32 31 32 30 28 27 26 26 26 25 22 19 18 18 18 18 20
40 41 42 46 48 48 48 44 42 39 39 38 37 38 38 35 34 34 34 34 33 32 32 33 34 33 31 29 29 27 26 25 25 25 25 22 26 29 24 18 19 20 20
33 41 46 46 46 46 43 41 38 39 39 38 36 34 35 33 35 33 33 33 33 32 33 32 33 32 30 31 30 27 24 24 24 23 24 23 24 26 26 23 22 21 18
34 39 42 44 45 43 42 38 38 40 38 33 32 33 34 33 32 31 30 29 30 31 32 31 32 33 31 31 30 28 23 23 23 24 23 22 21 23 20 20 20 19 19
35 38 40 41 41 42 39 38 35 32 32 30 31 31 31 30 30 29 29 30 32 32 31 31 31 33 32 32 31 27 22 23 24 24 23 22 21 21 20 19 19 18 19
36 39 41 39 37 34 32 31 31 29 30 29 28 30 31 30 30 29 32 32 31 31 31 30 30 32 31 32 30 26 24 24 24 25 24 24 21 21 20 20 19 18 18
36 36 32 30 30 30 29 30 28 28 29 30 29 30 31 30 31 31 31 31 31 30 30 29 31 32 30 31 30 27 26 25 25 24 24 23 20 20 21 19 18 17 16
31 31 31 31 31 32 31 31 30 28 29 31 32 32 32 31 30 30 29 28 29 29 30 30 30 30 30 29 31 29 26 25 25 25 24 24 23 23 23 22 20 17 19
30 30 31 30 30 29 29 28 28 29 31 32 32 32 32 31 30 29 29 29 29 29 29 27 28 29 30 31 32 32 30 26 23 24 24 24 26 25 24 23 23 22 22
33 34 33 32 29 28 28 28 28 29 32 32 32 32 32 30 29 28 29 29 29 28 28 28 26 27 29 29 31 32 31 29 26 24 24 26 26 25 25 25 25 22 19
34 34 33 31 30 29 27 30 30 31 31 30 30 30 30 30 29 30 29 28 27 25 28 27 27 26 26 26 26 28 29 30 27 24 24 23 24 21 21 21 22 22 19
31 30 29 28 27 30 30 30 29 30 27 28 29 29 30 30 30 31 29 28 27 27 26 26 27 24 23 27 28 27 27 26 26 25 25 22 19 20 22 21 21 20 19
30 29 29 30 30 30 27 27 27 27 27 28 28 28 28 28 29 29 28 30 29 30 31 31 27 27 30 31 31 30 31 31 29 23 17 10 9 15 20 21 18 17 16

GFSMW_sfc_dewp_048.txt.gz
Dewpoint
49 49 49 50 51 58 58 57 56 56 56 55 53 52 51 52 49 48 48 49 48 47 45 44 42 41 38 40 40 39 37 37 38 35 35 34 35 31 32 32 30 32 31
46 48 49 50 57 58 58 57 56 56 55 55 53 53 51 50 47 47 48 49 45 44 43 42 40 39 40 39 39 38 38 38 38 35 34 33 33 33 33 32 31 30 32
44 47 51 55 57 57 57 56 56 56 56 55 53 50 49 47 46 46 46 48 45 43 42 42 40 40 40 39 39 39 38 37 38 37 35 32 31 32 33 32 31 31 31
43 48 52 56 57 57 58 56 56 56 56 56 53 49 47 46 47 46 47 46 44 43 42 41 41 42 41 40 40 37 36 37 33 36 37 36 34 32 32 31 33 32 31
41 49 55 56 57 58 58 57 56 56 56 56 53 50 48 47 47 47 47 45 44 43 42 42 41 39 38 36 35 34 34 35 35 34 36 35 35 34 32 31 30 32 32
45 47 56 57 58 58 58 58 57 57 58 57 53 51 48 47 47 47 45 44 44 42 40 37 37 36 35 34 34 33 33 33 34 35 36 36 35 35 36 34 33 33 31
48 50 56 57 58 58 58 58 57 57 57 56 53 51 48 47 47 47 46 42 39 38 37 36 35 35 34 34 34 33 34 35 35 35 37 38 37 37 38 37 35 32 30
47 50 55 57 58 58 58 58 58 56 54 52 50 48 46 46 46 44 42 40 39 38 37 38 36 34 34 34 36 36 36 34 35 34 34 36 36 37 36 36 35 32 28
49 52 53 56 57 58 58 58 58 54 51 50 47 43 42 42 41 40 40 39 38 37 37 33 33 33 35 36 35 34 33 33 34 34 33 33 33 34 33 35 35 34 26
51 53 54 54 56 56 54 51 51 49 49 47 44 42 44 43 40 39 39 38 37 35 35 34 32 33 35 34 34 33 33 32 32 33 32 31 32 31 29 28 27 27 24
48 51 51 52 52 52 49 47 47 48 46 43 44 43 42 43 43 40 39 36 38 37 34 32 31 32 34 33 33 31 32 32 32 31 30 29 28 26 25 24 23 21 20
46 48 49 50 49 49 48 47 47 46 43 42 42 40 41 43 41 39 39 39 36 35 33 33 31 33 33 33 31 31 32 32 31 30 27 26 23 22 24 22 19 19 19
46 46 47 49 49 48 48 47 46 44 42 40 40 42 44 41 41 38 37 37 34 33 31 31 32 33 34 32 31 32 32 31 28 26 24 24 25 22 22 19 19 19 18
45 44 44 47 48 48 49 47 45 46 41 41 42 43 43 40 36 37 35 34 33 31 31 32 33 34 34 32 32 32 32 28 26 26 26 25 23 20 19 18 18 18 19
43 44 44 44 46 48 48 46 44 44 44 43 42 43 42 37 36 35 34 34 33 31 31 33 34 34 34 31 32 29 28 26 25 26 25 25 24 28 26 19 19 20 19
39 41 45 47 47 48 45 44 44 44 43 41 41 40 36 36 36 35 34 34 33 31 32 33 33 33 31 32 33 29 26 25 24 23 24 24 26 26 27 25 24 21 19
39 45 46 47 47 47 45 44 42 43 38 36 36 37 36 35 35 33 31 29 30 31 32 32 32 32 33 33 33 31 25 24 24 23 24 23 22 24 20 21 20 19 20
38 40 42 43 42 40 39 38 36 34 35 32 32 33 33 32 32 31 31 33 33 32 32 32 32 31 33 33 33 31 24 23 24 25 25 23 22 22 20 19 19 19 18
35 33 34 33 34 33 33 31 31 30 30 31 31 32 33 32 31 36 34 33 31 31 31 31 30 30 32 34 33 30 24 23 24 25 25 24 22 23 23 20 20 18 17
31 31 31 31 30 29 28 29 30 30 31 31 31 32 33 37 36 33 32 31 30 29 29 29 30 31 30 32 33 31 25 25 26 25 24 26 22 23 22 20 19 17 16
30 30 30 30 30 30 29 29 30 31 33 35 36 38 37 33 31 30 29 29 29 28 28 28 29 29 30 29 33 32 26 25 26 25 24 24 25 24 24 24 21 18 19
30 30 29 29 29 28 29 29 30 31 33 36 35 32 32 31 30 30 30 29 29 28 28 24 27 28 29 31 32 33 32 28 25 25 25 24 26 25 27 26 25 25 24
32 29 27 28 29 29 29 29 30 31 32 32 31 31 31 31 30 29 28 28 27 26 27 27 26 26 28 29 32 32 33 32 27 26 26 25 25 25 26 27 26 23 21
32 32 30 29 29 29 29 30 30 30 29 28 28 29 29 29 29 29 29 29 25 23 26 26 26 26 26 26 27 28 29 32 30 26 27 24 24 20 21 21 23 22 20
29 29 29 30 29 30 29 29 29 29 28 27 28 28 28 28 28 30 30 29 28 27 26 26 26 23 23 26 29 29 27 27 29 25 23 24 22 22 22 21 22 22 20
30 29 30 30 29 26 26 27 28 27 26 26 27 27 27 27 28 28 28 30 30 30 30 31 28 27 29 30 31 31 32 31 29 26 21 23 18 19 19 19 20 21 18

GFSMW_sfc_dewp_051.txt.gz
Dewpoint
56 56 56 55 53 55 58 58 56 56 56 54 53 52 52 51 49 48 48 49 47 45 43 42 41 39 38 39 38 38 36 38 38 35 35 34 34 32 32 31 30 31 31
54 54 52 52 52 56 58 57 56 56 56 55 53 52 51 51 48 48 48 48 47 45 43 41 40 39 41 39 38 38 38 38 38 35 34 32 33 33 34 33 31 30 31
51 52 49 51 52 56 57 57 56 56 55 54 52 50 48 48 46 46 47 48 44 45 43 41 40 40 40 39 39 38 37 35 36 36 33 28 29 32 34 32 33 31 32
49 49 49 50 53 55 57 57 57 56 55 54 52 49 48 47 46 46 46 48 45 43 42 41 40 41 41 40 38 36 36 35 31 34 36 35 34 32 31 32 32 33 32
46 47 49 50 53 56 57 56 57 56 56 54 53 51 48 47 47 46 46 46 44 43 41 41 41 40 38 35 34 34 33 34 33 33 34 34 34 33 32 29 31 33 35
44 46 48 51 54 57 57 56 56 56 56 55 54 51 49 47 46 46 46 44 43 42 41 39 38 37 36 34 33 33 32 33 34 35 34 35 34 34 33 31 32 33 34
42 45 50 54 56 57 57 57 56 56 56 56 55 53 49 47 47 46 46 43 40 37 37 38 39 37 35 35 34 34 35 35 34 34 36 36 36 36 36 35 33 31 31
43 49 54 55 56 57 57 58 57 56 56 56 55 53 50 48 47 47 45 41 38 38 38 40 39 36 35 36 37 36 35 33 34 33 33 34 34 34 35 34 35 31 28
45 50 55 56 57 57 57 58 57 57 57 56 55 50 48 47 45 43 42 41 39 39 40 38 37 37 38 37 34 34 33 33 34 34 32 32 33 33 33 34 33 32 23
47 50 55 56 57 57 58 58 58 57 55 52 49 46 44 44 41 42 41 39 41 40 39 38 38 35 36 35 34 33 33 32 33 32 31 31 32 30 28 27 27 29 26
51 53 54 56 57 57 57 57 57 55 49 47 44 44 43 42 42 40 39 38 40 40 41 37 35 34 34 34 32 32 32 32 32 31 30 29 29 26 25 25 23 22 20
51 53 53 54 55 55 55 55 54 51 48 47 45 43 42 41 40 38 38 42 44 41 36 36 33 34 34 33 33 31 31 31 31 31 27 26 24 24 24 23 20 20 19
48 51 52 52 53 53 53 51 49 48 47 45 43 42 42 41 40 40 43 43 38 37 35 33 32 32 33 33 33 31 31 31 31 30 25 24 25 24 24 22 20 19 18
46 46 49 51 52 51 50 49 49 48 45 43 42 43 43 43 43 43 40 37 35 33 32 32 33 34 34 33 33 31 32 32 30 27 26 25 25 24 21 19 19 18 18
45 45 45 47 49 49 50 48 47 46 45 43 44 45 44 42 40 38 35 34 34 33 33 33 33 34 34 33 32 31 29 29 27 27 26 25 25 26 24 20 19 19 19
41 43 45 46 47 49 48 45 45 46 46 45 45 41 38 36 37 37 36 35 34 33 33 33 34 33 31 33 34 32 28 27 25 25 24 24 27 27 29 29 25 22 19
42 44 45 46 48 46 44 44 45 45 43 39 38 38 37 36 35 33 32 31 32 36 34 32 33 32 32 34 34 34 27 25 25 24 23 24 22 26 24 26 24 22 22
38 39 43 42 42 41 41 38 37 35 35 35 34 34 34 33 33 33 34 38 38 33 31 31 31 31 31 34 34 33 28 24 24 24 25 25 24 23 22 20 20 19 19
32 31 32 34 34 33 33 33 33 32 31 32 33 33 33 33 34 37 38 37 32 31 30 30 29 29 29 33 34 33 28 24 24 24 25 28 24 25 27 22 21 20 19
31 31 30 29 29 29 30 32 31 31 31 32 32 33 34 37 39 37 34 31 31 29 29 28 28 30 29 32 34 33 27 25 25 26 26 29 26 25 26 22 20 19 18
30 30 30 29 29 30 31 32 33 33 34 36 38 41 39 35 33 30 29 29 29 28 28 28 28 28 29 29 33 34 28 27 26 26 26 25 27 27 25 25 22 20 20
29 29 29 29 29 29 30 31 33 36 37 36 34 33 32 31 30 30 29 29 28 27 27 24 27 27 28 30 31 33 33 29 26 26 26 26 27 28 27 25 26 26 24
27 28 28 28 29 29 30 29 31 32 32 31 30 30 30 30 30 29 28 28 27 26 26 27 26 26 27 27 31 33 33 32 29 28 28 28 28 30 27 27 28 25 22
30 28 28 28 29 30 30 30 30 29 28 27 27 27 28 28 28 28 28 28 26 25 27 26 26 26 26 26 26 27 27 31 31 29 29 27 28 25 24 24 25 23 21
29 29 30 30 29 28 27 27 27 27 26 26 27 27 27 27 27 27 27 28 29 28 28 28 27 26 25 25 27 27 26 26 28 27 29 25 25 24 24 23 22 21 20
30 28 27 26 26 27 29 30 31 29 28 28 28 27 27 27 27 27 27 30 30 31 31 31 29 29 29 30 31 32 31 32 30 27 25 23 24 24 22 21 22 19 18

GFSMW_sfc_dewp_057.txt.gz
Dewpoint
53 55 55 56 57 58 59 60 60 60 59 57 57 57 58 59 59 57 56 54 52 50 49 44 45 44 43 43 44 43 43 41 42 39 37 38 39 38 35 37 37 35 37
53 54 55 56 56 57 59 59 59 59 58 57 57 57 57 58 57 57 55 53 51 48 47 46 44 43 43 44 44 44 41 42 41 35 34 29 31 35 37 36 36 39 36
53 54 55 55 56 57 58 58 58 58 58 57 56 55 56 55 54 54 54 52 49 47 46 46 44 44 44 43 44 44 42 38 38 39 30 24 21 29 33 37 36 38 38
52 54 56 56 56 56 58 58 58 58 58 57 56 55 55 55 55 55 54 52 49 47 44 44 44 45 44 44 43 40 40 37 32 36 36 37 32 24 24 33 36 37 36
52 53 55 56 56 57 58 59 59 58 58 57 57 57 56 57 54 53 52 52 50 47 44 44 45 45 44 44 41 40 39 36 34 32 34 35 35 36 31 25 30 34 33
51 53 55 56 55 57 58 59 58 57 58 57 57 56 56 55 53 53 52 50 48 47 46 43 44 45 43 41 40 39 38 38 36 36 37 35 31 29 31 30 30 30 30
50 50 53 54 55 55 56 58 57 57 58 57 57 56 55 55 53 52 50 50 48 46 45 44 44 41 39 39 39 39 40 39 39 39 37 36 35 35 34 33 30 29 29
50 49 50 53 53 55 56 57 56 57 57 57 57 56 55 55 54 52 50 50 49 46 45 43 41 39 39 40 41 41 39 39 39 39 38 34 35 35 34 32 32 29 24
47 47 48 51 53 53 55 57 56 56 57 57 58 57 56 55 54 51 51 50 48 43 43 41 39 40 42 43 41 39 37 37 38 38 37 35 35 35 34 34 33 30 26
41 43 46 50 52 54 55 57 57 56 57 57 58 57 56 56 54 52 50 47 44 42 41 41 41 43 44 41 39 37 37 37 36 35 36 35 34 33 33 33 32 31 27
43 43 45 48 52 55 56 56 56 56 57 57 57 57 57 56 53 50 47 44 43 43 40 42 44 44 40 38 38 37 36 36 35 35 35 35 34 32 32 31 29 27 25
43 46 47 51 54 55 56 56 57 57 57 57 57 57 56 53 51 48 45 44 42 43 43 44 43 39 39 38 37 36 34 35 34 34 34 34 31 33 32 29 28 25 26
47 48 50 51 53 55 56 57 56 56 57 55 55 53 51 50 48 46 45 45 45 44 44 41 40 39 38 38 38 36 35 35 34 34 34 33 34 32 30 28 26 26 26
41 48 50 52 54 55 56 56 56 55 53 51 50 49 48 47 46 46 45 45 44 42 40 40 39 40 39 36 35 34 35 35 34 35 34 34 33 31 29 27 26 26 24
42 45 48 51 52 53 54 53 52 50 50 48 47 47 46 45 44 45 43 41 41 40 40 40 39 37 36 36 36 34 35 35 34 35 34 34 34 32 30 25 26 25 23
45 45 46 48 50 50 50 48 48 47 48 47 46 44 43 43 41 40 40 41 40 38 37 37 37 38 36 35 35 35 35 34 33 32 33 32 31 31 32 33 32 29 26
42 44 44 46 47 47 46 46 46 46 44 43 42 40 39 39 39 37 36 36 38 40 40 40 39 39 40 35 35 35 34 33 33 32 31 29 26 29 27 29 30 30 31
38 39 40 41 42 42 42 41 40 39 38 36 35 35 35 35 36 39 41 41 41 41 41 40 39 36 33 34 34 34 33 33 33 32 32 31 30 29 28 26 27 27 25
33 34 35 36 36 37 37 36 35 34 33 33 35 37 39 39 40 40 40 41 41 39 36 34 33 33 33 33 33 32 32 32 32 31 31 30 30 30 30 27 29 26 24
32 32 33 34 34 34 34 33 32 34 36 38 39 40 41 41 40 39 36 35 34 32 31 30 32 32 32 32 33 32 33 34 32 32 31 31 30 30 30 31 32 29 25
31 33 33 32 32 33 34 34 35 36 39 41 38 35 34 33 32 32 32 31 30 31 32 31 32 31 31 31 32 33 32 34 33 32 31 31 30 30 30 31 32 31 27
30 31 32 32 34 35 36 35 34 33 32 32 31 30 30 28 28 30 30 29 30 30 31 34 32 32 32 31 32 32 32 32 34 32 32 32 31 31 31 31 31 29 28
29 30 31 31 31 30 30 28 29 28 28 28 29 29 29 28 28 28 28 27 27 27 28 27 28 27 30 29 31 31 31 30 32 34 34 32 31 31 30 31 30 30 30
28 29 28 28 28 29 29 28 28 29 29 28 26 25 23 22 21 19 20 20 23 24 23 24 24 25 25 26 27 30 31 30 31 31 33 33 32 32 32 31 31 32 32
28 27 28 29 28 27 25 25 25 26 24 23 20 18 19 19 17 18 20 20 22 24 24 24 24 27 27 26 26 27 28 29 28 31 32 32 32 30 29 30 30 30 31
27 28 28 26 24 23 22 21 21 18 17 15 16 19 19 20 18 17 17 20 22 22 23 23 23 24 23 22 23 23 25 27 28 29 29 31 32 30 29 29 28 28 28

GFSMW_sfc_dewp_060.txt.gz
Dewpoint
51 54 55 55 54 53 54 56 57 59 61 59 55 53 54 55 56 58 61 61 60 59 58 53 50 47 46 46 47 45 45 42 44 41 38 38 38 39 35 35 34 34 34
50 53 55 55 56 54 55 56 57 59 59 57 54 52 53 55 55 58 60 60 59 58 56 52 48 47 46 48 47 46 43 43 43 39 36 36 35 36 36 35 33 37 34
47 51 53 55 56 55 56 55 56 58 59 58 55 53 54 56 56 57 60 59 57 55 53 51 48 48 47 46 47 46 45 42 41 39 34 35 33 31 32 34 33 35 35
46 49 52 54 56 56 56 56 56 57 58 59 56 55 51 50 54 57 59 58 56 54 52 49 48 50 46 46 47 45 45 42 38 37 35 36 33 28 26 29 32 36 35
46 48 51 53 55 56 57 58 56 57 58 59 58 56 54 50 54 58 58 57 55 52 48 48 49 49 46 48 47 46 44 38 36 38 35 35 33 33 29 24 23 28 30
48 48 48 53 54 56 58 59 58 57 58 59 60 59 58 56 57 57 57 56 55 52 50 46 48 48 47 47 46 45 41 37 40 40 36 32 28 26 26 26 27 27 28
48 49 48 50 53 56 58 58 58 57 58 60 60 60 60 59 57 56 56 55 53 51 50 48 48 47 47 46 43 40 40 40 41 39 35 37 31 29 29 29 27 26 25
46 48 50 51 52 55 57 59 58 57 57 59 59 60 60 59 57 57 57 56 53 50 51 49 48 47 45 42 42 42 42 41 40 39 40 35 32 32 31 28 28 29 26
41 46 48 50 53 55 57 58 58 57 57 59 60 60 59 58 57 57 57 55 52 52 51 49 48 44 42 43 43 44 42 40 41 41 39 35 33 34 32 31 30 29 28
39 42 45 49 51 53 56 58 59 57 58 58 59 59 58 58 58 57 56 54 53 54 49 47 42 43 44 45 43 42 40 38 39 37 37 35 33 34 32 31 31 30 27
41 42 44 46 49 52 54 56 57 56 56 57 58 58 58 58 58 57 55 53 52 49 47 43 43 44 45 42 41 39 39 38 37 36 35 35 35 33 31 32 30 29 27
42 43 44 46 48 51 53 54 55 55 55 57 57 57 58 57 57 56 53 51 48 45 44 44 45 44 42 40 40 39 39 38 36 35 35 34 30 34 34 31 31 29 28
41 45 46 47 49 51 53 54 56 56 56 57 57 57 57 56 53 50 47 45 45 45 45 46 44 41 40 39 40 41 39 36 35 34 34 34 34 33 32 31 29 28 24
32 43 47 49 52 54 55 56 57 57 56 55 54 52 51 49 47 46 46 45 46 45 45 42 41 41 41 41 41 38 37 36 34 35 35 34 33 33 32 30 30 27 26
39 40 47 50 52 55 56 55 54 52 52 50 50 49 48 47 46 46 45 45 45 42 41 41 41 42 41 40 39 37 38 36 34 35 34 35 35 35 34 28 28 28 26
44 45 47 50 52 53 52 52 52 52 50 49 46 45 45 45 44 44 44 44 43 41 40 40 40 40 39 38 37 37 39 36 34 33 33 32 35 35 35 33 32 30 27
44 45 48 49 50 50 50 50 49 49 48 46 44 43 43 43 43 41 39 37 38 38 39 40 40 41 41 38 38 37 34 34 34 33 32 29 26 32 32 32 32 32 32
42 44 45 46 46 46 46 46 44 44 43 41 41 40 40 38 38 39 40 40 41 40 41 42 41 40 36 35 34 34 32 32 31 31 31 31 30 30 31 31 29 29 28
40 41 42 43 44 43 43 41 40 38 37 38 39 39 40 39 39 40 41 42 42 41 39 36 34 34 33 34 34 32 32 30 31 30 30 30 30 30 34 31 31 28 29
38 39 40 41 41 41 40 39 38 39 39 39 39 39 40 40 39 38 37 37 35 32 31 30 30 31 31 32 34 32 33 32 32 32 30 31 31 31 32 34 32 32 28
36 38 38 38 38 38 39 38 38 38 39 39 37 37 35 34 34 32 31 31 30 30 32 32 33 33 33 33 33 33 32 32 33 32 32 32 32 32 32 32 33 34 31
35 35 36 37 37 37 38 37 36 35 35 33 30 29 29 26 26 29 30 29 30 31 30 37 29 29 28 28 28 30 30 30 31 28 30 32 33 34 33 32 31 31 32
33 35 35 36 35 34 33 31 31 30 30 29 29 28 27 26 25 25 25 23 21 22 23 22 25 24 26 25 27 27 26 26 29 29 30 30 31 32 33 33 31 31 34
32 32 32 31 30 30 29 29 28 28 28 27 26 24 20 19 17 14 14 16 21 23 21 22 23 23 22 24 23 23 24 24 26 27 30 29 28 29 31 32 34 33 34
31 31 31 30 28 27 26 26 26 25 23 21 18 17 18 16 14 14 17 19 22 23 22 23 22 25 24 22 21 22 23 26 25 27 30 29 28 27 28 30 32 35 34
30 30 29 27 24 22 21 20 19 18 17 14 15 19 19 19 15 13 14 21 20 19 22 20 21 22 19 19 19 20 20 21 22 28 29 31 32 30 27 29 31 33 31

GFSMW_sfc_dewp_063.txt.gz
Dewpoint
47 50 51 50 50 52 52 52 52 53 55 54 52 50 50 51 52 53 56 59 61 61 61 57 56 53 50 50 51 49 47 43 44 42 42 41 42 41 38 38 36 35 35
47 48 51 51 50 51 52 52 51 52 54 54 53 50 48 49 50 52 56 60 61 61 59 59 55 54 50 52 52 50 46 45 45 43 41 39 39 39 39 38 37 39 36
46 48 49 52 52 51 52 52 53 53 54 54 53 49 49 50 51 51 54 60 61 59 59 59 56 55 52 51 53 50 47 44 45 43 40 39 37 38 38 39 37 38 36
44 48 51 53 54 53 53 53 53 53 54 56 53 52 47 46 49 52 53 58 59 58 57 57 55 53 52 52 51 50 49 47 44 43 37 39 41 36 35 35 34 35 36
41 44 48 52 53 55 55 55 53 53 54 55 56 54 52 50 50 52 55 59 60 58 57 56 55 53 51 52 52 52 49 46 43 40 38 43 41 40 34 32 32 30 31
40 41 45 49 51 53 56 56 55 54 55 56 57 57 56 55 50 51 56 59 58 57 56 53 54 54 52 52 51 52 49 43 40 41 38 38 37 31 33 31 30 28 30
43 43 41 46 49 52 55 56 56 54 55 57 57 58 58 58 57 55 57 57 57 57 56 54 53 52 52 51 50 49 46 43 41 42 38 36 33 34 31 29 29 29 29
40 43 45 44 48 51 53 56 55 55 55 59 58 59 60 59 59 58 59 58 58 58 57 55 52 51 52 51 49 44 43 43 43 42 41 39 35 33 31 30 30 30 28
34 40 44 47 46 50 54 57 56 55 56 59 60 61 61 61 60 60 59 58 59 56 54 52 51 51 52 46 44 44 44 44 43 43 42 39 35 35 34 33 32 29 27
36 39 43 47 49 50 54 57 58 56 56 57 60 61 61 61 61 60 59 58 57 55 52 51 51 47 44 44 45 44 43 41 41 40 39 38 37 35 34 33 32 30 28
37 40 41 44 47 50 53 55 57 57 57 57 59 61 60 60 59 59 58 58 57 55 53 51 45 45 45 46 45 42 41 40 40 39 39 37 37 35 34 33 31 30 29
34 39 43 44 45 48 51 54 56 57 57 57 58 60 59 59 59 58 58 57 54 50 47 45 46 46 45 44 42 40 40 39 39 40 39 37 32 37 35 33 33 31 31
33 37 42 44 47 49 51 53 55 54 54 55 56 58 58 57 54 50 49 46 46 46 46 46 45 45 43 41 41 41 41 42 42 40 38 37 36 37 35 34 33 31 27
31 36 40 45 48 51 52 53 56 57 57 57 55 54 52 50 48 47 46 45 45 45 45 45 42 42 41 41 41 41 42 41 40 40 38 37 36 34 35 33 34 31 31
33 33 42 45 50 53 56 56 55 54 53 52 50 50 49 48 47 47 46 46 45 44 43 42 42 42 41 41 42 41 41 40 39 39 37 37 36 36 35 31 34 33 31
40 41 43 48 52 54 54 53 52 51 50 49 48 48 47 46 46 45 44 44 43 42 41 41 41 41 41 39 39 39 38 39 38 37 35 35 35 36 35 35 35 34 33
43 45 47 51 52 52 52 52 50 49 47 47 46 46 45 45 45 44 43 42 42 41 41 40 40 40 41 39 38 38 39 36 33 33 33 31 27 32 31 33 34 34 33
44 47 48 49 50 50 50 50 48 47 46 45 44 44 43 41 41 40 41 41 40 40 40 40 41 41 40 39 38 35 33 32 32 31 31 32 32 33 32 32 32 33 34
44 45 46 46 46 45 45 44 43 43 42 41 40 41 42 41 40 40 40 41 40 41 41 40 37 34 33 35 34 32 30 29 30 28 29 29 31 31 33 32 33 32 33
41 42 43 43 43 43 42 41 41 41 41 41 41 41 40 40 41 41 41 41 39 34 32 30 30 30 29 34 34 32 32 32 32 31 30 31 31 32 32 34 34 31 31
39 41 41 41 41 41 42 41 41 40 40 40 40 40 39 38 37 35 33 31 29 29 33 32 33 32 31 30 31 30 26 28 28 27 27 28 29 30 31 33 32 34 34
38 39 39 39 40 40 40 39 39 39 38 37 35 33 31 27 27 29 29 28 29 30 30 29 27 28 28 28 29 25 25 25 25 23 26 27 28 29 28 28 29 32 33
36 37 38 39 39 39 39 37 36 34 34 33 31 29 27 25 24 24 24 21 20 23 24 23 25 24 26 24 27 24 23 23 25 25 26 26 27 28 29 29 31 31 32
35 36 37 37 36 35 33 33 33 31 30 29 27 24 23 19 16 13 14 16 23 23 21 22 23 23 23 23 23 20 21 21 22 23 26 25 26 28 28 28 30 32 31
35 36 35 33 32 31 30 29 28 28 25 22 19 19 18 16 14 14 16 20 24 22 22 24 22 24 24 21 19 19 20 22 21 24 26 27 28 28 28 29 28 29 32
34 33 33 31 29 28 26 26 25 22 19 17 17 22 22 21 15 13 18 21 21 21 23 19 20 21 19 18 18 19 19 19 20 21 23 25 26 25 25 27 28 30 29